                ,  0.290,  0.386,  0.483,  0.580,  0.676,  0.773,  0.869,  0.966,  1.063,  1.159,  1.256,  1.352,  1.449,  1.545,  1.642,  1.739,  1.835,  1.932,  2.028,  2.125,  2.222,  2.318,  2.415,  2.511,  2.608,  2.705,  2.801,  2.898,  2.994,  3.091,  3.188,  3.284,  3.381,  3.477,  3.574,  3.671,  3.767,  3.864,  3.960,  4.057,  4.153,  4.250,  4.347,  4.443,  4.540,  4.636,  4.733,  4.830,  4.926,  5.023,  5.119,  5.216,  5.313,  5.409,  5.506,  5.602,  5.699,  5.796
2000/11/15 00:00,  999.0,  999.0,    4.9,  999.0,    0.1,   -0.8,    1.4,    0.6,    3.2,    8.4,  999.0,  999.0,    2.6,    1.8,    1.1,    0.9,  999.0,    3.6,  999.0,  999.0,  999.0,  999.0,  999.0,  999.0,  999.0,  999.0,  999.0,  999.0,  999.0,  999.0,  999.0,  999.0,  999.0,  999.0,  999.0,  999.0,  999.0,  999.0,  999.0,  999.0,  999.0,  999.0,  999.0,  999.0,  999.0,  999.0,  999.0,  999.0,  999.0,  999.0,  999.0,  999.0,  999.0,  999.0,  999.0,  999.0,  999.0,  999.0
2000/11/15 00:10,  999.0,    4.5,    3.5,    3.8,    5.9,    3.4,    3.8,    4.9,    6.1,    6.5,    4.1,    2.5,    1.3,   -1.1,   -3.7,    2.0,  999.0,  999.0,  999.0,  999.0,  999.0,  999.0,  999.0,  999.0,  999.0,  999.0,  999.0,  999.0,  999.0,  999.0,   32.5,  999.0,   41.4,  999.0,  999.0,  999.0,  999.0,  999.0,  999.0,  999.0,  999.0,  999.0,  999.0,  999.0,  999.0,  999.0,  999.0,  999.0,  999.0,  999.0,  999.0,  999.0,  999.0,  999.0,  999.0,  999.0,  999.0,  999.0
2000/11/15 00:20,  999.0,    5.2,    5.5,    3.8,    5.2,    5.1,    3.1,    5.2,    3.2,    4.1,    4.5,    2.7,    1.7,   -0.8,    1.6,  999.0,  999.0,  999.0,  999.0,  999.0,  999.0,  999.0,  999.0,  999.0,  999.0,  999.0,  999.0,   31.6,   33.4,   34.3,   38.3,   29.8,   41.3,  999.0,  999.0,  999.0,  999.0,   42.2,  999.0,  999.0,  999.0,  999.0,  999.0,  999.0,   41.4,   41.8,  999.0,  999.0,   12.8,   42.6,  999.0,  999.0,  999.0,   41.6,  999.0,    9.7,  999.0,  999.0
2000/11/15 00:30,  999.0,  999.0,    3.5,    4.1,    7.4,    5.3,    3.6,    3.9,    2.8,  999.0,    6.1,    4.7,    5.0,    4.8,    6.4,    2.9,    4.1,  999.0,  999.0,  999.0,  999.0,  999.0,  999.0,  999.0,  999.0,  999.0,  999.0,   35.8,   37.1,   36.0,   37.4,  999.0,   39.8,  999.0,   42.1,   41.6,  999.0,   41.8,   41.6,   41.3,   41.6,  999.0,   41.7,   41.6,   42.0,   41.7,  999.0,   41.7,  999.0,   41.4,   40.9,   41.7,   42.0,   41.3,  999.0,  999.0,  999.0,   41.7
2000/11/15 00:40,  999.0,    0.4,    1.0,    5.4,    5.6,    5.1,    3.2,    3.1,    3.6,    4.1,    3.3,    2.2,    1.0,    1.5,  999.0,    3.4,  999.0,  999.0,  999.0,  999.0,  999.0,  999.0,  999.0,  999.0,  999.0,   21.6,  999.0,  999.0,  999.0,   32.4,  999.0,   38.0,   40.9,   37.4,   41.3,   41.3,   41.5,   41.4,   42.0,   42.2,   41.1,   41.7,   41.3,   41.1,   41.4,   41.8,   41.7,   41.4,  999.0,   42.0,   41.9,   41.8,   41.3,   42.3,   41.9,   41.3,   41.4,   41.3
2000/11/15 00:50,  999.0,  999.0,    4.2,    4.9,    3.3,    5.3,    6.5,    2.1,    4.4,    4.4,    3.2,    2.7,    1.9,    1.1,    2.3,    8.7,   -2.1,  999.0,  999.0,  999.0,  999.0,  999.0,  999.0,  999.0,   24.3,  999.0,  999.0,   21.6,   24.5,  999.0,  999.0,  999.0,  999.0,   33.5,   35.8,   38.5,   40.8,   41.8,  999.0,   42.0,   41.2,   42.2,  999.0,  999.0,   41.6,  999.0,  999.0,   41.7,   41.4,   41.4,   41.7,  999.0,   41.7,   41.6,   42.2,   41.5,  999.0,  999.0
2000/11/15 01:00,  999.0,    3.5,    5.2,    5.8,    4.4,    3.7,    3.2,    3.8,    3.6,    1.4,    2.5,    4.9,    3.3,    3.1,    2.4,    2.2,    3.0,  999.0,    5.3,  999.0,  999.0,  999.0,  999.0,  999.0,  999.0,  999.0,  999.0,  999.0,  999.0,   26.0,   30.3,   32.0,   33.6,   32.6,   34.5,  999.0,   35.6,   36.9,   37.7,   38.7,   41.0,   40.9,   41.9,   41.4,   41.8,   42.0,   42.0,   42.2,   41.8,   41.6,   41.4,   41.9,   42.1,   42.1,   41.3,  999.0,   41.6,   41.7
2000/11/15 01:10,  999.0,    3.3,    4.8,    5.6,    1.5,    0.4,    6.9,    2.9,    0.6,    4.0,    0.0,  999.0,    0.8,    2.6,    1.5,    1.8,  999.0,  999.0,    3.8,  999.0,  999.0,  999.0,  999.0,    5.3,  999.0,  999.0,  999.0,  999.0,  999.0,  999.0,   30.6,   31.0,   34.5,   36.8,   37.3,   39.2,   40.8,   41.2,   41.2,   41.7,   42.4,   41.4,   42.0,   41.7,   41.7,   41.9,   41.9,   41.2,   41.8,   41.5,   42.4,   42.1,   41.9,   41.8,   42.1,   42.2,   41.7,   41.4
2000/11/15 01:20,  999.0,  999.0,    2.7,    2.8,    3.5,    3.3,    3.7,    2.5,    2.2,    3.1,  999.0,  999.0,  999.0,    2.0,    1.4,  999.0,  999.0,    0.8,    1.7,    5.5,  999.0,  999.0,  999.0,    6.0,  999.0,  999.0,  999.0,  999.0,   32.0,  999.0,   36.5,  999.0,   38.7,   40.6,   38.1,   40.8,   42.6,   41.3,   41.7,   42.0,   41.6,   41.1,  999.0,   41.6,   41.8,   41.9,   41.5,   42.1,   41.4,   41.1,  999.0,   42.8,   42.4,   42.5,  999.0,   41.0,   41.4,   42.0
2000/11/15 01:30,  999.0,  999.0,    3.3,    4.1,    4.6,    4.9,    3.9,    3.1,    3.4,    2.6,    3.0,    2.6,    4.5,    2.7,    1.3,    1.6,  999.0,  999.0,    3.7,    5.6,  999.0,  999.0,  999.0,  999.0,   20.5,  999.0,  999.0,  999.0,  999.0,  999.0,   37.8,   39.1,   39.1,   41.2,   41.4,  999.0,   42.0,   41.2,   42.2,   41.8,   41.9,   42.0,   42.5,   41.7,   42.5,   41.6,   41.8,   41.8,   41.3,   41.3,   41.9,   41.7,   42.2,   41.5,   43.1,   42.7,   41.8,   42.0
2000/11/15 01:40,  999.0,  999.0,    3.7,    5.1,    6.6,    4.2,    2.8,    2.6,    3.5,    3.9,    4.4,    2.4,    3.1,    3.6,  999.0,    2.3,    0.6,  999.0,    4.8,    6.4,    8.8,  999.0,  999.0,  999.0,  999.0,  999.0,  999.0,  999.0,  999.0,  999.0,   38.4,   40.4,   40.0,  999.0,   41.6,   41.8,   41.6,   41.7,   41.8,   42.1,   41.4,   42.2,   42.2,  999.0,   41.6,   42.0,   42.2,   42.1,   41.9,   41.8,   41.2,   41.5,   41.8,   41.5,   41.8,   41.9,   41.0,   41.9
2000/11/15 01:50,  999.0,    4.2,    4.3,    2.6,    6.3,    4.2,    3.4,    3.6,    3.7,    2.1,    5.1,    4.4,  999.0,    1.5,    1.8,  999.0,  999.0,    4.1,    5.4,    7.2,  999.0,  999.0,  999.0,  999.0,  999.0,  999.0,  999.0,  999.0,  999.0,  999.0,  999.0,   41.8,   42.1,   41.8,   42.0,   42.2,   42.3,   41.3,   41.8,   42.0,   41.9,   41.6,   41.7,   42.1,   41.6,   42.1,   42.9,   41.9,  999.0,   41.7,   42.3,   42.1,   41.7,   41.7,   42.2,   42.0,   41.6,   41.6
2000/11/15 02:00,  999.0,  999.0,    5.2,    7.5,    7.5,    4.3,    4.8,    4.3,    3.2,    4.2,    4.0,  999.0,  999.0,    2.8,    0.4,    2.3,    4.0,    4.1,    5.4,    6.6,  999.0,  999.0,  999.0,  999.0,  999.0,   25.8,   27.2,  999.0,  999.0,  999.0,   41.6,   41.4,   41.9,   41.8,   41.8,  999.0,   41.9,   42.1,   41.6,   41.5,   41.9,   41.9,   41.2,  999.0,   42.0,   41.8,   41.9,   41.9,   41.9,   42.1,  999.0,   42.0,   41.9,  999.0,   41.7,   41.6,   41.7,   42.0
2000/11/15 02:10,  999.0,  999.0,    1.8,    5.4,    5.2,    4.6,    3.0,    3.1,    2.8,    3.8,  999.0,    1.6,  999.0,    1.9,  999.0,    1.0,    2.3,  999.0,  999.0,  999.0,  999.0,  999.0,  999.0,  999.0,  999.0,  999.0,  999.0,  999.0,  999.0,   42.2,   41.8,   42.5,   41.9,   42.1,   42.0,   41.8,   41.4,   42.1,   41.8,   41.0,   42.4,   41.4,   41.6,   41.9,  999.0,  999.0,   41.6,   41.6,  999.0,   42.0,   41.5,   42.6,   41.8,   40.6,   42.0,   41.5,   40.3,   41.4
2000/11/15 02:20,  999.0,    2.2,    3.2,    1.4,    5.9,    6.1,    5.7,    4.9,    4.3,    4.3,    4.6,  999.0,    0.2,    2.1,    2.3,  999.0,  999.0,  999.0,   11.5,  999.0,  999.0,  999.0,  999.0,  999.0,  999.0,  999.0,  999.0,   38.1,   39.7,   41.0,   41.6,   41.7,   41.3,  999.0,   41.9,   42.3,   41.9,   41.4,   41.8,   42.0,   42.2,   41.9,  999.0,   42.3,   42.2,   41.8,   42.3,   42.3,   41.9,   42.1,   42.6,   41.6,   42.2,   42.3,   41.8,   42.4,   42.4,   42.5
2000/11/15 02:30,  999.0,    1.1,    1.0,    4.0,  999.0,  999.0,    3.4,    4.4,    3.8,    3.4,  999.0,  999.0,  999.0,  999.0,  999.0,  999.0,  999.0,  999.0,  999.0,  999.0,  999.0,  999.0,  999.0,  999.0,  999.0,  999.0,  999.0,  999.0,   38.2,   39.9,   40.9,   40.9,   41.1,   42.0,   41.8,   41.9,   41.2,   41.7,   42.1,   42.3,  999.0,   41.7,   41.4,   41.6,   41.6,   42.0,   40.9,   41.5,   40.9,  999.0,   41.5,   41.0,   41.7,   41.7,   41.6,   41.6,  999.0,   41.9
2000/11/15 02:40,  999.0,  999.0,    3.1,    3.1,    2.0,    3.8,    5.0,    3.5,    2.4,    2.8,  999.0,  999.0,  999.0,  999.0,  999.0,  999.0,    4.6,  999.0,  999.0,  999.0,  999.0,  999.0,  999.0,  999.0,  999.0,  999.0,  999.0,   38.0,   38.9,   40.4,   41.3,   41.3,  999.0,   41.8,   41.8,  999.0,   42.0,   41.9,   41.9,  999.0,   42.0,   41.8,   41.6,   41.9,   42.3,   42.2,   42.5,   41.8,   42.1,   42.2,   41.9,  999.0,   42.1,  999.0,   41.9,   41.8,   41.9,   41.7
2000/11/15 02:50,  999.0,  999.0,    4.3,    3.8,    2.9,    3.5,    5.0,    3.1,    2.2,    3.1,  999.0,    0.7,    1.0,    2.0,  999.0,  999.0,  999.0,  999.0,  999.0,  999.0,  999.0,  999.0,  999.0,  999.0,  999.0,  999.0,  999.0,   36.8,   36.9,   38.9,   41.1,   41.5,  999.0,   41.5,   42.1,  999.0,  999.0,   42.1,   42.1,  999.0,  999.0,   40.9,  999.0,   41.4,   41.9,   41.9,  999.0,   42.1,   41.8,   42.4,  999.0,   41.6,  999.0,   41.1,   42.4,   41.3,  999.0,   41.8
2000/11/15 03:00,  999.0,  999.0,  999.0,    5.9,    3.5,  999.0,    3.1,    1.9,    2.3,    1.1,    3.3,  999.0,    1.8,    2.7,    4.0,    3.0,  999.0,  999.0,  999.0,  999.0,  999.0,  999.0,  999.0,  999.0,  999.0,  999.0,   36.1,   36.8,   37.1,   41.4,  999.0,  999.0,   41.3,   40.8,   41.4,   41.3,  999.0,  999.0,   42.0,   41.6,  999.0,   42.9,   42.3,   42.9,   41.7,   42.9,   41.8,   41.6,  999.0,   41.0,   42.0,   42.6,   42.1,   42.9,  999.0,   42.0,   41.7,   41.6
2000/11/15 03:10,  999.0,  999.0,    2.0,    3.9,    3.2,    3.3,    3.3,    4.1,    3.5,    2.8,    4.0,  999.0,    2.2,    0.8,    3.2,  999.0,    6.5,  999.0,  999.0,  999.0,  999.0,  999.0,  999.0,  999.0,  999.0,  999.0,  999.0,  999.0,   37.8,   39.3,   39.6,   38.5,   41.3,   41.2,   42.1,   41.8,   41.6,  999.0,   41.4,  999.0,   42.0,   41.8,   41.4,  999.0,   41.9,   41.4,   41.7,   41.7,   41.6,   42.8,   41.9,  999.0,  999.0,   42.4,   41.8,   41.7,   41.4,   41.7
2000/11/15 03:20,  999.0,  999.0,    3.8,    3.8,    1.8,    4.5,    1.7,    4.5,    3.7,    2.7,    2.4,  999.0,    1.9,    1.5,  999.0,  999.0,  999.0,  999.0,    5.2,  999.0,  999.0,  999.0,  999.0,  999.0,  999.0,  999.0,  999.0,  999.0,  999.0,   33.9,   34.5,   33.0,   37.1,  999.0,   38.7,   35.6,   36.6,   39.0,   41.7,   40.6,   40.7,   40.7,   41.0,   41.2,   42.4,   41.9,   41.6,   42.0,   42.2,   42.5,   42.2,   42.3,   42.0,   41.6,   41.9,   41.3,   41.8,   41.6
2000/11/15 03:30,  999.0,  999.0,    3.0,  999.0,    4.4,    5.2,    5.6,    4.4,    4.2,    3.5,  999.0,   -0.1,    0.9,    2.0,  999.0,  999.0,  999.0,  999.0,  999.0,  999.0,    7.0,  999.0,  999.0,  999.0,  999.0,   29.9,  999.0,   31.8,   32.5,   33.4,   35.4,  999.0,   35.6,   38.1,   35.2,   38.5,   40.7,  999.0,   40.0,  999.0,   41.7,   42.4,   42.0,   42.5,   42.5,   42.1,   42.2,   41.8,   42.0,  999.0,   42.3,  999.0,   41.5,   41.8,   42.2,   41.6,   41.5,   41.8
2000/11/15 03:40,  999.0,  999.0,    1.8,    1.8,    1.5,    1.3,   -0.2,    3.6,  999.0,    1.7,    1.5,    1.5,   -0.1,  999.0,    1.0,  999.0,  999.0,  999.0,  999.0,  999.0,  999.0,  999.0,  999.0,  999.0,  999.0,  999.0,  999.0,  999.0,  999.0,  999.0,  999.0,  999.0,  999.0,  999.0,  999.0,  999.0,  999.0,  999.0,  999.0,  999.0,  999.0,  999.0,  999.0,  999.0,  999.0,  999.0,  999.0,  999.0,  999.0,  999.0,  999.0,  999.0,  999.0,  999.0,  999.0,  999.0,  999.0,  999.0
2000/11/15 03:50,  999.0,    1.1,    3.1,   -2.3,    0.9,   -1.5,  999.0,    6.3,    1.8,    2.6,    2.7,    0.3,    0.3,    1.0,  999.0,  999.0,  999.0,  999.0,  999.0,  999.0,  999.0,  999.0,  999.0,  999.0,  999.0,  999.0,  999.0,  999.0,  999.0,  999.0,  999.0,  999.0,  999.0,  999.0,  999.0,  999.0,  999.0,  999.0,  999.0,  999.0,  999.0,  999.0,  999.0,  999.0,  999.0,  999.0,  999.0,  999.0,  999.0,  999.0,  999.0,  999.0,  999.0,  999.0,  999.0,  999.0,  999.0,  999.0
2000/11/15 04:00,  999.0,  999.0,   -2.5,    1.4,   -1.2,  999.0,  999.0,    0.6,    2.6,    4.0,    3.1,    3.0,    2.0,    1.1,    1.4,  999.0,  999.0,  999.0,  999.0,  999.0,  999.0,  999.0,  999.0,  999.0,  999.0,  999.0,  999.0,  999.0,  999.0,   10.0,    8.8,    7.8,  999.0,    5.9,  999.0,    4.3,  999.0,  999.0,    2.3,  999.0,  999.0,  999.0,  999.0,  999.0,  999.0,  999.0,  999.0,  999.0,  999.0,  999.0,  999.0,  999.0,  999.0,  999.0,  999.0,  999.0,  999.0,  999.0
2000/11/15 04:10,  999.0,    4.5,  999.0,  999.0,    4.1,    3.0,    3.2,    3.5,    0.3,    3.1,    0.9,    1.6,  999.0,    2.2,  999.0,  999.0,  999.0,  999.0,  999.0,  999.0,   -2.3,  999.0,  999.0,  999.0,  999.0,  999.0,   12.4,  999.0,   11.3,   10.9,    8.5,    9.6,    8.7,    8.2,    7.7,    3.6,    4.7,    5.5,    3.0,    2.1,    1.0,    1.1,    1.2,    0.5,    1.3,    0.8,    0.5,    0.2,    1.3,    0.2,    0.6,    0.0,    0.6,    1.0,    0.1,  999.0,  999.0,  999.0
2000/11/15 04:20,  999.0,    1.9,  999.0,  999.0,    3.0,    4.0,    3.0,    2.7,    0.1,    1.7,    2.2,    2.6,  999.0,  999.0,  999.0,  999.0,  999.0,    2.2,  999.0,  999.0,  999.0,  999.0,  999.0,  999.0,  999.0,  999.0,   11.7,   10.1,  999.0,    7.0,    5.9,  999.0,  999.0,  999.0,  999.0,  999.0,    0.9,  999.0,  999.0,  999.0,    0.2,   -0.1,    0.9,  999.0,  999.0,    0.8,    0.6,  999.0,  999.0,  999.0,  999.0,  999.0,  999.0,  999.0,  999.0,  999.0,  999.0,  999.0
2000/11/15 04:30,  999.0,  999.0,  999.0,    8.0,    7.6,    6.8,    6.7,    6.0,    3.2,    1.2,    1.7,    5.2,    3.4,  999.0,  999.0,  999.0,  999.0,  999.0,  999.0,  999.0,  999.0,  999.0,  999.0,  999.0,  999.0,  999.0,  999.0,  999.0,   23.9,   22.6,  999.0,   22.3,  999.0,   22.5,   23.0,   23.1,  999.0,   22.3,   22.9,   22.7,   23.2,   23.1,   23.5,   22.6,  999.0,  999.0,  999.0,  999.0,   22.0,   22.8,  999.0,   22.3,   22.2,  999.0,   22.3,  999.0,  999.0,  999.0
2000/11/15 04:40,  999.0,  999.0,  999.0,    2.2,  999.0,    2.8,    7.3,    5.5,    2.8,    3.1,    1.9,    2.9,  999.0,  999.0,  999.0,  999.0,  999.0,  999.0,  999.0,  999.0,  999.0,  999.0,  999.0,  999.0,  999.0,  999.0,  999.0,  999.0,  999.0,  999.0,  999.0,  999.0,  999.0,  999.0,  999.0,  999.0,  999.0,  999.0,  999.0,  999.0,  999.0,  999.0,  999.0,  999.0,  999.0,  999.0,  999.0,  999.0,  999.0,  999.0,  999.0,  999.0,  999.0,  999.0,  999.0,  999.0,  999.0,  999.0
2000/11/15 04:50,  999.0,  999.0,    1.2,    1.4,    1.7,    1.2,    2.3,    2.6,    3.9,    1.7,    1.4,    2.6,    4.1,    7.0,  999.0,  999.0,  999.0,  999.0,  999.0,  999.0,  999.0,  999.0,  999.0,  999.0,  999.0,  999.0,  999.0,  999.0,  999.0,  999.0,  999.0,  999.0,  999.0,  999.0,  999.0,  999.0,  999.0,  999.0,  999.0,  999.0,  999.0,  999.0,  999.0,  999.0,  999.0,  999.0,  999.0,  999.0,  999.0,  999.0,  999.0,  999.0,  999.0,  999.0,  999.0,  999.0,  999.0,  999.0
2000/11/15 05:00,  999.0,  999.0,   -0.2,    0.2,   -0.1,    3.0,    1.5,    1.8,    3.0,    1.8,    0.3,    1.6,  999.0,  999.0,  999.0,  999.0,  999.0,  999.0,  999.0,  999.0,  999.0,  999.0,  999.0,  999.0,  999.0,  999.0,  999.0,  999.0,  999.0,  999.0,  999.0,  999.0,  999.0,  999.0,  999.0,  999.0,  999.0,  999.0,  999.0,  999.0,  999.0,  999.0,  999.0,  999.0,  999.0,  999.0,  999.0,  999.0,  999.0,  999.0,  999.0,  999.0,  999.0,  999.0,  999.0,  999.0,  999.0,  999.0
2000/11/15 05:10,  999.0,  999.0,   -2.2,   -0.5,   -0.8,  999.0,    1.5,    0.5,    2.1,    2.6,    1.5,    4.7,    5.5,    4.9,  999.0,  999.0,  999.0,  999.0,  999.0,  999.0,  999.0,  999.0,  999.0,  999.0,  999.0,  999.0,  999.0,  999.0,  999.0,  999.0,  999.0,  999.0,  999.0,  999.0,  999.0,  999.0,  999.0,  999.0,  999.0,  999.0,  999.0,  999.0,  999.0,  999.0,  999.0,  999.0,  999.0,  999.0,  999.0,  999.0,  999.0,  999.0,  999.0,  999.0,  999.0,  999.0,  999.0,  999.0
2000/11/15 05:20,  999.0,  999.0,  999.0,   -0.0,    0.7,    1.2,    1.5,    4.1,    0.7,    0.0,    0.5,    3.5,  999.0,  999.0,  999.0,  999.0,  999.0,  999.0,  999.0,  999.0,  999.0,  999.0,  999.0,  999.0,  999.0,  999.0,  999.0,  999.0,   21.5,   22.2,   21.2,   21.4,   20.8,  999.0,  999.0,   21.1,  999.0,  999.0,   21.4,   21.4,   21.5,   21.3,  999.0,  999.0,  999.0,  999.0,   21.1,   21.1,  999.0,  999.0,  999.0,  999.0,  999.0,  999.0,  999.0,  999.0,  999.0,  999.0
2000/11/15 05:30,  999.0,   -0.9,   -1.1,    1.6,   -0.0,    1.9,    1.5,    1.3,    1.9,    2.9,    1.8,  999.0,    1.7,  999.0,  999.0,  999.0,  999.0,  999.0,  999.0,  999.0,  999.0,  999.0,  999.0,  999.0,  999.0,  999.0,  999.0,  999.0,  999.0,  999.0,  999.0,   21.8,  999.0,   20.6,  999.0,   21.6,  999.0,  999.0,  999.0,   20.7,  999.0,   21.3,   21.0,  999.0,  999.0,  999.0,  999.0,  999.0,  999.0,  999.0,  999.0,  999.0,  999.0,  999.0,  999.0,  999.0,  999.0,  999.0
2000/11/15 05:40,  999.0,  999.0,  999.0,   -0.8,   -1.3,   -1.8,    0.2,    0.0,    1.5,    2.1,    1.1,    0.5,  999.0,    3.6,  999.0,  999.0,  999.0,  999.0,  999.0,  999.0,  999.0,  999.0,  999.0,  999.0,  999.0,  999.0,  999.0,  999.0,  999.0,  999.0,  999.0,  999.0,  999.0,  999.0,  999.0,  999.0,  999.0,  999.0,  999.0,  999.0,  999.0,  999.0,  999.0,  999.0,  999.0,  999.0,  999.0,  999.0,  999.0,  999.0,  999.0,  999.0,  999.0,  999.0,  999.0,  999.0,  999.0,  999.0
2000/11/15 05:50,  999.0,  999.0,  999.0,    2.8,   -1.6,   -0.6,   -0.3,   -0.6,    1.7,    2.8,    1.9,    0.8,    1.9,    3.2,  999.0,  999.0,  999.0,  999.0,  999.0,  999.0,  999.0,  999.0,  999.0,  999.0,  999.0,  999.0,  999.0,  999.0,  999.0,  999.0,  999.0,  999.0,  999.0,  999.0,  999.0,  999.0,  999.0,  999.0,  999.0,  999.0,  999.0,  999.0,  999.0,  999.0,  999.0,  999.0,  999.0,  999.0,  999.0,  999.0,  999.0,  999.0,  999.0,  999.0,  999.0,  999.0,  999.0,  999.0
2000/11/15 06:00,  999.0,   -1.4,   -3.6,    0.5,   -2.1,   -1.0,    2.1,    2.8,    0.2,    4.1,    4.4,    1.8,    3.1,    3.4,    3.0,  999.0,  999.0,  999.0,  999.0,  999.0,  999.0,  999.0,  999.0,  999.0,  999.0,  999.0,  999.0,  999.0,  999.0,  999.0,  999.0,  999.0,  999.0,  999.0,  999.0,  999.0,  999.0,  999.0,  999.0,  999.0,  999.0,  999.0,  999.0,  999.0,  999.0,  999.0,  999.0,  999.0,  999.0,  999.0,  999.0,  999.0,  999.0,  999.0,  999.0,  999.0,  999.0,  999.0
2000/11/15 06:10,  999.0,   -3.0,   -2.2,   -1.6,   -0.5,    1.9,    1.0,    1.4,    2.9,    3.3,    2.0,  999.0,    2.8,    3.0,    3.7,    2.2,  999.0,  999.0,  999.0,  999.0,  999.0,  999.0,  999.0,  999.0,  999.0,  999.0,   11.5,   10.5,   12.5,    9.2,    9.0,    8.5,    6.6,    7.7,    6.8,    7.6,    4.8,    6.7,    1.8,    1.3,    0.5,    0.1,    0.5,    1.3,  999.0,    0.9,    0.6,    0.8,    1.1,    1.2,    0.8,    0.2,    0.6,    0.7,    0.5,    0.7,    1.0,    0.7
2000/11/15 06:20,  999.0,   -2.1,   -3.1,  999.0,   -0.5,    0.3,   -1.0,    0.4,   -0.4,    2.3,    1.8,    2.0,    4.0,    2.9,    3.2,    3.1,  999.0,  999.0,  999.0,  999.0,  999.0,  999.0,  999.0,  999.0,  999.0,   25.8,  999.0,   31.1,   28.0,   30.7,   31.2,   32.1,   33.1,   33.8,   34.3,   35.0,   35.9,   37.2,   37.6,   38.3,   38.6,   39.6,   40.5,   39.0,   40.8,   41.7,   41.4,   41.9,   41.5,   41.3,   41.9,   41.6,   42.1,   41.7,   40.5,   42.0,   41.8,   41.9
2000/11/15 06:30,  999.0,   -1.3,   -1.3,    0.6,   -0.8,   -2.6,    0.2,  999.0,    2.6,   -0.2,    1.7,    1.3,    3.7,    4.2,    3.3,    3.6,    3.3,  999.0,  999.0,  999.0,  999.0,  999.0,  999.0,   26.3,   26.9,   27.5,   28.2,   30.4,   29.5,  999.0,   31.9,   32.8,   33.8,   35.5,   33.6,   36.1,   38.1,   37.5,   39.9,   39.1,   42.2,   40.6,  999.0,   41.1,   41.3,   41.6,   42.4,   41.1,   42.2,  999.0,   41.9,   41.8,   41.6,   41.5,   41.5,   41.3,  999.0,   41.9
2000/11/15 06:40,  999.0,   -2.5,   -1.7,   -0.3,   -1.4,    0.3,  999.0,    1.4,    1.3,    2.1,    1.4,    1.3,    1.1,   -0.5,    2.3,    2.3,    2.6,    4.1,  999.0,  999.0,  999.0,  999.0,  999.0,  999.0,  999.0,  999.0,  999.0,  999.0,  999.0,  999.0,   32.8,  999.0,  999.0,   35.2,   36.3,  999.0,   38.1,   38.5,   39.6,  999.0,   41.5,  999.0,   40.8,   41.5,  999.0,   41.3,   41.4,  999.0,   42.0,   41.7,   41.8,  999.0,   41.5,   42.0,  999.0,  999.0,   42.0,  999.0
2000/11/15 06:50,  999.0,   -2.6,   -1.8,   -1.4,   -1.2,   -0.4,    1.0,  999.0,    2.8,  999.0,    0.7,    1.9,    1.3,  999.0,    2.9,    3.2,    4.3,    3.4,  999.0,  999.0,  999.0,  999.0,  999.0,  999.0,   28.2,   28.5,   29.9,   31.0,   31.7,   33.1,   33.2,   33.7,   35.0,   35.4,   36.2,   37.3,   38.3,   38.6,   39.5,   40.4,   40.2,   41.5,   41.6,   41.9,   42.1,   42.1,   41.6,   39.6,   16.0,   29.2,   42.0,   33.7,   42.3,   35.7,   42.1,   41.9,   42.2,   32.1
2000/11/15 07:00,  999.0,   -3.1,   -2.5,   -1.3,   -0.9,    0.6,    0.5,  999.0,    0.6,    1.3,  999.0,    0.2,  999.0,  999.0,  999.0,  999.0,  999.0,  999.0,  999.0,  999.0,  999.0,  999.0,  999.0,   30.0,   30.1,   31.5,   31.8,   32.8,   33.9,   34.4,   35.5,   36.9,   37.8,   38.6,   38.4,   39.3,   40.8,   41.2,   41.6,   41.2,   41.3,   41.5,  999.0,   41.6,   41.4,   41.3,   42.4,   41.6,   41.9,   42.1,   41.9,   41.7,   41.8,   41.6,   41.8,   41.9,   42.0,   42.0
2000/11/15 07:10,  999.0,   -2.9,   -3.3,   -1.9,   -1.0,   -0.2,   -1.9,  999.0,    0.6,    1.4,  999.0,    1.5,  999.0,  999.0,  999.0,  999.0,  999.0,  999.0,  999.0,  999.0,  999.0,  999.0,   26.8,   27.6,   29.3,  999.0,  999.0,   33.0,   31.7,   31.3,   33.6,   37.1,   35.3,   34.2,   36.7,  999.0,   39.1,   41.5,   42.4,  999.0,   40.6,   41.2,   41.7,   41.4,   42.2,  999.0,   41.7,  999.0,   42.2,   41.6,   41.5,   41.7,   41.7,   42.1,   42.3,   41.8,   41.9,   41.5
2000/11/15 07:20,  999.0,   -2.0,   -2.1,   -2.2,   -1.9,    0.2,    1.8,  999.0,    0.5,    0.8,  999.0,  999.0,    4.3,  999.0,  999.0,  999.0,  999.0,  999.0,  999.0,  999.0,   25.2,  999.0,   27.5,   29.4,   29.3,  999.0,   30.7,   34.1,   32.3,   33.3,   34.8,   37.1,   36.5,   37.7,   37.8,   38.8,   41.1,  999.0,   41.2,   42.0,   41.2,   41.9,   41.6,   41.0,   41.6,   41.8,   41.5,   41.9,   41.8,   41.9,   42.0,   41.6,   41.8,   41.6,   41.7,   41.6,   41.8,   41.3
2000/11/15 07:30,  999.0,   -1.6,   -2.5,   -0.7,    0.5,    1.0,   -0.4,  999.0,    0.9,    1.8,    1.2,    0.5,  999.0,  999.0,  999.0,  999.0,  999.0,  999.0,  999.0,  999.0,   27.2,  999.0,   27.9,   28.0,   31.5,  999.0,   30.7,  999.0,   33.9,   33.4,   35.1,   37.8,  999.0,   39.7,   37.8,   38.6,   41.0,  999.0,   41.1,   41.0,   41.0,   41.5,   41.9,   40.9,   41.4,  999.0,   40.6,   41.5,   41.2,   41.2,   41.2,   41.9,  999.0,   41.4,   41.5,   41.5,   41.1,   41.3
2000/11/15 07:40,  999.0,   -4.0,   -4.5,   -2.9,   -1.5,   -0.2,   -1.1,  999.0,    1.9,    0.9,    0.1,  999.0,  999.0,  999.0,  999.0,  999.0,  999.0,  999.0,  999.0,  999.0,   27.1,   26.6,   29.3,   27.8,   29.5,   30.7,   30.2,   32.0,  999.0,   32.8,   33.9,   36.6,   36.8,   38.6,   38.4,   41.3,   38.2,   41.6,   42.1,   41.2,   41.7,   41.9,   41.8,   42.0,   42.0,   41.6,   41.8,  999.0,   41.9,   41.7,   42.0,   41.5,   41.4,   41.5,   41.6,   42.1,   42.2,   42.1
2000/11/15 07:50,  999.0,   -0.8,   -3.3,   -3.0,   -2.4,    0.6,  999.0,    2.3,    2.0,    2.0,    1.3,    1.3,    2.0,  999.0,  999.0,  999.0,  999.0,  999.0,  999.0,  999.0,   25.4,   26.5,  999.0,  999.0,   30.1,   30.5,   31.9,  999.0,   34.0,  999.0,   36.8,   37.0,   38.9,   39.3,   41.2,  999.0,   38.8,   41.0,   41.3,   41.3,   41.6,   41.3,   41.7,   41.7,   40.7,  999.0,   42.7,   41.8,   40.7,   41.9,   41.8,   41.8,   41.2,   42.1,   41.9,   42.0,   42.2,   42.2
2000/11/15 08:00,  999.0,  999.0,   -3.2,   -2.4,   -1.6,    0.9,  999.0,  999.0,  999.0,  999.0,   -1.0,  999.0,  999.0,  999.0,  999.0,  999.0,   21.8,  999.0,   22.5,   23.5,   26.2,   26.5,   27.4,   28.9,   30.2,   31.8,  999.0,   33.8,   34.5,   35.2,   37.7,   37.0,  999.0,   40.1,  999.0,  999.0,   42.2,   41.4,   41.8,   41.8,   42.0,   41.9,   41.7,   41.8,   41.5,   42.2,   41.3,   41.6,   41.8,   42.0,   42.0,   41.8,   41.7,   41.7,   41.7,   41.9,   41.5,   41.4
2000/11/15 08:10,  999.0,  999.0,  999.0,   -3.8,   -3.6,    1.1,    1.0,    1.5,    0.9,    2.8,    0.2,   -0.0,  999.0,  999.0,   -0.3,  999.0,   21.9,  999.0,   22.6,   25.5,   24.6,   25.4,   27.8,   27.9,   29.2,   31.5,   32.3,   32.6,   34.0,   35.6,   37.3,   38.0,   40.7,   40.8,   41.8,   41.8,   41.6,   41.3,  999.0,   41.9,   42.0,  999.0,   42.0,   41.8,   41.8,   41.5,   42.9,   42.0,   42.0,   41.5,   41.4,   41.6,   41.7,   41.9,   41.9,   41.8,   42.6,   41.7
2000/11/15 08:20,  999.0,   -2.0,   -4.8,   -2.2,   -0.4,   -0.4,  999.0,  999.0,   -0.5,    1.5,   -0.3,    1.2,    0.4,  999.0,  999.0,  999.0,  999.0,  999.0,   23.2,   24.0,   25.8,   26.5,   27.7,   29.1,   30.1,   31.6,   32.5,   34.6,   34.4,   34.6,   37.5,   39.5,  999.0,   41.0,   40.5,   41.0,   41.1,   41.0,   41.6,   42.1,   41.7,   42.1,   41.7,   42.0,   41.3,   41.6,   41.0,   41.7,   41.4,   41.3,   41.6,   41.7,   41.8,   41.9,   41.9,   42.1,   41.7,   42.4
2000/11/15 08:30,  999.0,  999.0,   -2.9,   -3.2,    1.2,    1.2,   -0.3,    1.5,    3.3,    3.2,  999.0,    1.1,    0.5,  999.0,   -0.8,  999.0,  999.0,  999.0,  999.0,  999.0,  999.0,  999.0,  999.0,  999.0,  999.0,  999.0,   33.8,  999.0,   37.3,  999.0,  999.0,   38.3,  999.0,   41.4,   42.0,   41.6,   41.3,   41.6,   41.1,   41.5,   41.1,  999.0,   42.3,   41.5,   42.0,   41.8,   41.9,   42.0,   42.1,   41.8,   41.6,   41.8,  999.0,   41.6,   41.9,  999.0,  999.0,  999.0
2000/11/15 08:40,  999.0,  999.0,  999.0,   -2.9,   -0.5,    0.4,    0.4,    3.2,    3.8,    1.1,    2.0,    3.6,    1.0,  999.0,  999.0,  999.0,  999.0,  -19.6,  -18.0,  -17.8,  999.0,  -15.6,  -15.5,  -14.2,  -13.1,  -12.3,  -11.7,  999.0,  999.0,   -9.0,  999.0,   -7.4,   -6.6,   -5.5,   -4.7,  999.0,  999.0,   -2.6,   -1.2,  999.0,  999.0,  999.0,   -0.4,   -0.7,   -1.0,  999.0,  999.0,  999.0,  999.0,   14.4,   41.8,  999.0,   41.9,   41.9,   41.8,  999.0,   41.8,   41.6
2000/11/15 08:50,  999.0,    0.7,   -0.9,   -1.4,   -1.0,   -0.9,    0.4,    2.4,    3.0,    2.3,    0.6,    2.1,  999.0,   -0.2,  999.0,  999.0,   -0.2,  999.0,  -12.1,  -18.7,  999.0,  999.0,   -0.5,  999.0,   -7.7,  -13.4,   -9.9,  -11.9,  -14.9,  -22.7,  -18.5,  -20.2,   -8.4,  999.0,  999.0,  -14.6,  -11.9,   -5.1,   -2.5,   -6.1,  -11.7,  -17.9,   -0.8,  999.0,   -0.9,   -1.2,   -1.1,    0.0,   -0.8,  999.0,   -0.2,   -0.6,   -0.8,   33.8,   13.4,   -1.1,  999.0,   40.4
2000/11/15 09:00,  999.0,    0.2,   -1.3,   -1.5,    0.0,   -0.3,    1.6,    2.3,    3.7,    4.2,    2.5,    2.7,    1.4,    0.1,  999.0,  999.0,   -2.3,  999.0,  999.0,  999.0,  999.0,  999.0,  -16.9,  -14.0,  -14.4,  -13.1,  -12.3,  -10.9,   -9.9,   -9.1,   -8.2,   -7.1,   -6.2,   -5.3,   -4.8,   -3.0,   -3.1,   -1.2,   -0.4,   -0.4,   -0.6,   -0.9,   -0.9,   -0.3,   -0.5,   -0.6,   -1.0,   -0.7,  999.0,  999.0,  999.0,   -0.8,   -0.8,   -0.6,   -0.6,  999.0,  999.0,  999.0
2000/11/15 09:10,  999.0,   -1.5,   -2.5,   -3.5,   -1.5,   -0.8,    1.3,    0.3,    3.3,    3.4,    2.8,    3.2,    1.7,    1.1,   -0.4,  999.0,   -0.9,   -4.1,  999.0,  999.0,   15.5,   12.7,  -20.8,  -20.9,  -20.6,  -21.3,  -28.8,  -29.1,  999.0,  -30.9,  -26.7,  -30.7,  -30.2,  -28.5,  -41.3,   -9.0,  -41.8,  -42.8,   -4.0,   17.6,  -22.6,   -1.6,   -0.8,   -1.2,   20.2,   42.0,  999.0,   -0.7,  999.0,   41.8,   41.8,   20.7,   20.8,   20.6,   -0.9,  999.0,  999.0,  999.0
2000/11/15 09:20,  999.0,   -1.8,   -2.1,   -2.7,   -1.4,   -0.2,   -0.3,   -0.6,    2.4,    2.5,    2.8,    2.6,    2.4,    1.6,    0.2,  999.0,   -1.0,   -0.1,  999.0,  999.0,  999.0,  999.0,  -11.3,   -6.7,  999.0,   -3.5,   -1.4,   -0.9,   -0.4,   -0.6,   -0.6,   -0.5,   -1.0,   -1.1,   -0.8,   -0.8,  999.0,   -0.8,  999.0,   -0.8,   -0.8,   -1.0,   -3.6,   -5.8,   -7.8,   -0.2,  -12.0,   -0.6,  -14.8,   -1.2,  -17.6,   -1.1,  -20.4,   -1.1,   -0.5,   -0.2,   -0.7,  999.0
2000/11/15 09:30,  999.0,   -1.2,   -0.4,   -0.7,    0.3,   -0.4,   -0.4,    1.8,    4.5,    3.8,    0.4,  999.0,    1.4,  999.0,    0.1,  999.0,  999.0,  -21.7,  -23.9,  999.0,  -36.5,  -42.0,  -41.7,  -42.0,  -41.7,  -27.6,  -27.7,  -42.0,  -41.9,  -26.6,  -11.0,  -31.4,  -25.8,  -30.9,  -21.0,  -11.2,  999.0,   -3.4,   -2.1,  -23.4,   -1.7,  -21.2,  -21.2,  999.0,  -10.5,  -41.4,  -10.1,   10.6,    0.0,   -0.1,   -0.5,  -42.5,   10.6,  -40.3,   18.2,   20.8,   16.2,   28.7
2000/11/15 09:40,  999.0,  999.0,  999.0,  999.0,  999.0,   -0.8,    0.0,    0.8,    1.9,    2.4,    0.7,    3.0,   -0.1,   -4.7,  999.0,  999.0,  999.0,  999.0,  999.0,  999.0,   -9.0,  999.0,  -10.9,   -8.4,  -29.4,  -24.3,  -14.9,  -41.4,  -22.5,  -22.2,  999.0,  -26.9,  -10.9,  -20.1,   -9.3,  -17.4,  -16.1,  -17.7,   -7.6,  999.0,  999.0,  999.0,  999.0,  999.0,  999.0,  999.0,  999.0,  999.0,  999.0,   41.3,   42.0,   41.9,   41.7,   41.1,   42.2,   42.1,   41.7,   41.9
2000/11/15 09:50,  999.0,   -0.8,    1.5,    2.0,    2.0,  999.0,   -0.0,    0.3,   -3.3,    1.3,    0.9,    3.7,    1.6,    0.9,  999.0,  999.0,   -5.2,  999.0,    0.5,   -5.3,  -21.1,  -20.5,  -19.7,  -18.1,  -15.6,  -15.0,  -13.8,  -12.9,  -11.8,  999.0,  999.0,   -9.5,   -9.0,   -7.9,  999.0,   -5.0,   -6.0,   -4.1,   -3.7,   -2.7,   -1.0,   -0.8,  999.0,   -1.4,  999.0,  999.0,   -0.7,   -0.8,  999.0,   42.4,  999.0,   21.0,   20.8,   -0.4,   20.6,   41.3,  999.0,   41.9
2000/11/15 10:00,  999.0,   -1.4,   -0.8,    0.1,    0.4,   -2.8,    1.2,   -1.9,    0.6,    4.1,  999.0,    3.9,    1.8,    0.7,  999.0,   -1.0,  999.0,    6.9,   31.3,   41.8,   41.6,   41.9,   42.2,   42.0,  999.0,  999.0,  999.0,  999.0,  999.0,  999.0,  999.0,  999.0,  999.0,   20.9,   41.8,   21.2,   17.8,   41.7,  999.0,   42.2,  999.0,   41.9,  999.0,   41.9,   41.9,   41.7,  999.0,   41.8,   41.8,   41.8,   33.7,   42.4,   30.8,   29.0,   42.5,   41.9,   38.7,   37.9
2000/11/15 10:10,  999.0,    1.7,    0.9,    0.8,    1.0,   -0.5,  999.0,   -0.4,    2.3,    3.4,    3.6,    2.3,    1.8,    1.5,  999.0,  999.0,  999.0,  999.0,  999.0,  999.0,  999.0,  999.0,  999.0,   16.0,    0.7,  999.0,  999.0,  999.0,  999.0,  999.0,  999.0,   -3.1,  -12.3,   20.9,   41.2,   10.2,   10.5,   10.3,   -0.5,    0.1,    0.2,   -0.5,    0.0,    0.0,   -1.5,  999.0,   -6.9,  -21.5,  -41.7,  -41.8,  -26.0,  -28.0,  -27.8,  -42.0,  -42.8,  -41.6,  -41.7,  999.0
2000/11/15 10:20,  999.0,    0.5,    0.4,   -0.5,   -1.4,   -0.8,   -1.0,   -1.2,    3.5,    7.8,  999.0,    5.3,    2.3,    1.9,    1.1,    0.2,    0.5,  999.0,  999.0,  999.0,  999.0,   40.7,  -24.1,  -23.9,   39.6,  999.0,    1.3,  999.0,  999.0,  -33.3,  -30.6,  999.0,    1.2,  -19.1,  -19.9,  -41.2,  -20.5,  999.0,  -27.7,  -41.7,  -41.8,  -41.5,  -41.8,  -20.5,  -41.8,  -27.7,  -41.5,  -20.3,    0.5,  999.0,    0.4,  -42.0,  -27.8,  -27.9,  -41.6,    0.7,  999.0,    0.8
2000/11/15 10:30,  999.0,    0.8,    0.3,   -0.1,   -0.7,   -0.9,    2.1,    2.2,    0.4,    1.7,    5.5,    3.5,    2.5,    2.9,    3.8,  999.0,  999.0,  999.0,  999.0,  999.0,  999.0,  999.0,   -3.2,   -1.7,   -0.1,  999.0,  999.0,  999.0,  999.0,  -30.4,  999.0,  -36.4,  999.0,  -39.5,  -41.1,  -41.1,  -41.5,  -41.7,  -41.7,  -41.6,  -41.6,  -41.8,  -41.6,  999.0,  -33.8,  -35.1,  -21.2,  -31.2,  -20.7,  999.0,  999.0,  -24.7,  -39.4,  -23.2,  -40.3,  999.0,   -0.4,  -19.8
2000/11/15 10:40,  999.0,    1.3,    0.7,    0.3,   -0.5,   -0.8,   -0.6,    1.0,    0.7,    4.3,    3.9,    4.6,    3.4,    2.5,    0.5,   -2.8,  999.0,  -11.2,  -14.8,  999.0,  999.0,  999.0,  999.0,  999.0,  999.0,  999.0,  999.0,  -41.7,  999.0,  -41.6,  -41.3,  -41.6,  999.0,  -41.8,  -39.1,  -41.9,  -42.0,  -41.6,  -42.0,  -41.8,  -41.9,  -41.6,  -42.1,  -42.0,  -41.9,  -41.8,  -38.1,  -41.8,  -41.7,  -41.6,  -27.4,  -20.6,  -34.3,  -20.1,  -41.6,  -41.8,  -21.0,  -27.6
2000/11/15 10:50,  999.0,    0.7,    0.4,    0.0,   -0.3,   -0.4,    0.7,    0.6,    1.8,    2.3,    4.3,    5.4,  999.0,    3.4,    1.9,   -5.8,   -7.9,  999.0,  999.0,  999.0,  999.0,  999.0,  -36.8,  -39.7,  999.0,  999.0,  999.0,  -41.8,  999.0,  -42.2,  -42.4,  -41.9,  -41.8,  -41.5,  -41.6,  -41.9,  -41.6,  -41.8,  -42.4,  -41.9,  -42.2,  -41.8,  -42.0,  -41.9,  -41.6,  -42.1,  -41.8,  -42.2,  999.0,  -41.6,  -41.5,  -41.9,  -42.1,  -41.9,  -42.1,  -41.8,  -41.8,  -42.2
2000/11/15 11:00,  999.0,   -0.4,   -0.6,   -1.4,   -1.5,   -0.2,    0.4,    0.6,    0.6,    2.2,    4.6,    5.7,  999.0,  999.0,    0.2,   -1.2,    0.1,  999.0,  999.0,   14.7,   13.4,  999.0,  999.0,  999.0,  -41.6,  999.0,  999.0,  -41.6,  -42.2,  -42.1,  -28.1,  -41.8,  -33.6,  -41.7,  -15.9,  -29.9,  -27.8,  -20.8,  -15.4,  -18.1,  -28.3,  -42.2,  -20.8,  -18.0,  -21.3,  -22.9,  -13.6,  -26.4,  999.0,   31.2,   34.0,  -29.4,  -19.1,  -21.4,  -42.4,    0.1,  -27.7,  999.0
2000/11/15 11:10,  999.0,   -3.1,    0.2,    0.6,    0.5,   -0.1,    0.4,   -0.1,    1.0,    1.9,    1.7,    2.7,  999.0,    0.8,    1.1,  999.0,  999.0,  999.0,  999.0,  999.0,  999.0,  999.0,  999.0,  999.0,  999.0,  999.0,  -41.8,  999.0,  -41.9,  -42.1,  -41.8,  -41.8,  -41.5,  -41.8,  -41.8,  -41.7,  -41.8,  -41.9,  -41.7,  -41.8,  -42.0,  -41.8,  -41.8,  -41.7,  -41.9,  -41.8,  -41.7,  -42.4,  -42.2,  -41.6,  -41.5,  -35.8,  -29.8,  -41.6,  -40.8,  -41.5,  -21.1,  -41.1
2000/11/15 11:20,  999.0,    1.5,    1.3,    0.1,    0.7,    0.9,    0.5,    0.2,   -0.4,    0.9,  999.0,  999.0,  999.0,  999.0,  999.0,  999.0,  999.0,  999.0,  999.0,  999.0,  999.0,  999.0,  999.0,  999.0,  999.0,  -33.7,  -35.3,  999.0,  999.0,  -40.7,  -40.6,  -41.5,  -41.6,  -42.2,  -42.0,  -41.8,  -41.7,  -42.1,  999.0,  -42.3,  -42.0,  -42.0,  -41.8,  999.0,  -41.7,  -41.8,  -41.7,  -41.9,  -41.8,  -41.7,  -41.9,  -42.0,  -42.1,  -41.7,  -42.3,  -42.3,  -42.2,  -41.5
2000/11/15 11:30,  999.0,    1.9,    1.6,    1.4,    0.9,   -0.1,    0.8,    1.2,    1.8,    0.8,    1.7,  999.0,  999.0,  999.0,  999.0,  999.0,  999.0,  999.0,  999.0,  999.0,  999.0,  999.0,  999.0,  -36.3,  -38.1,  -40.1,  -41.8,  -42.4,  -41.4,  -42.0,  -42.0,  999.0,  -41.6,  -41.7,  -41.7,  -41.9,  -41.8,  -41.9,  -41.9,  -42.0,  -42.0,  -41.4,  -42.1,  -41.8,  -42.0,  -41.7,  -42.0,  -41.9,  -41.8,  -41.6,  -40.8,  -42.1,  -41.5,  -41.4,  999.0,  -41.8,  -41.3,  -41.5
2000/11/15 11:40,  999.0,    2.0,    1.4,    0.8,   -0.1,   -0.1,    0.3,    1.5,    1.4,    0.4,  999.0,    2.4,  999.0,  999.0,  999.0,  999.0,  999.0,  999.0,  999.0,  999.0,  999.0,  999.0,  999.0,  -36.8,  -39.0,  -40.1,  -42.0,  -41.9,  -42.1,  -42.2,  -42.3,  -41.9,  -41.9,  -41.8,  -41.9,  -41.5,  -41.7,  -41.6,  -41.9,  -41.9,  -41.6,  -42.0,  -42.3,  -42.1,  -42.0,  -41.5,  -41.9,  -42.1,  -41.9,  -41.6,  -41.8,  -41.7,  -42.5,  -41.7,  -41.4,  -41.8,  -42.0,  -41.4
2000/11/15 11:50,  999.0,    1.9,    0.0,    3.3,    0.1,   -0.4,    0.2,   -0.2,   -0.1,    0.7,  999.0,    2.5,    2.8,  999.0,  999.0,  999.0,  999.0,  999.0,  999.0,  999.0,  999.0,  999.0,  -30.9,  -32.2,  -34.3,  -34.8,  -36.5,  -37.4,  -39.4,  -41.1,  -41.0,  -42.0,  -42.3,  -41.5,  -41.8,  -42.1,  -42.5,  -42.1,  -42.0,  -42.3,  -41.6,  -42.3,  -42.1,  -42.2,  -41.8,  -42.2,  -41.6,  -42.2,  -41.9,  -42.0,  -41.9,  -41.2,  -42.2,  -41.5,  -41.7,  -31.3,  -41.9,  -34.9
2000/11/15 12:00,  999.0,    1.1,    1.9,    1.4,   -0.2,    0.2,    1.9,    1.9,    1.2,    1.5,    1.7,  999.0,  999.0,  999.0,  999.0,  999.0,  999.0,  999.0,  999.0,  999.0,  999.0,  999.0,  999.0,  999.0,  -35.4,  -36.4,  -38.3,  -39.2,  -42.1,  -41.6,  -42.2,  -42.4,  -42.6,  -43.0,  -42.3,  -41.6,  -42.1,  999.0,  -42.5,  -42.5,  -42.3,  -42.4,  -42.0,  -42.2,  -42.1,  -42.2,  -42.3,  -42.3,  -42.6,  -42.1,  -42.0,  -42.3,  -42.0,  -42.5,  -42.3,  -42.3,  -42.6,  -42.7
2000/11/15 12:10,  999.0,    0.8,   -0.3,    0.9,   -0.5,   -0.3,    1.0,    2.0,    1.7,    0.1,    0.9,    1.7,  999.0,  999.0,  999.0,  999.0,  999.0,  999.0,  999.0,  -14.7,  -13.8,  999.0,  -11.7,  999.0,   -9.0,   -8.6,   -6.6,   -5.2,   -4.3,   -3.3,   -2.2,   -1.5,   -0.7,   -0.5,   -0.4,   -0.3,   -0.5,   -0.8,   -0.9,   -1.2,   -0.7,   -0.8,   -0.8,   -0.4,   -1.0,   -1.0,   -1.0,   -0.8,   -1.0,   -0.8,   -1.0,   -0.7,   -0.7,   -0.9,   -0.6,   -0.5,   -0.7,   -0.8
2000/11/15 12:20,  999.0,   -1.1,   -0.9,   -0.5,   -1.4,   -2.0,   -1.8,   -0.3,    1.1,    1.2,    1.2,    0.5,    0.6,  999.0,  999.0,    3.9,   23.2,   26.6,   -8.8,   -5.7,   11.8,   13.7,   12.9,   11.7,   -0.9,   -2.5,   -1.3,   -2.4,   11.1,  -18.4,    0.0,    2.7,   -1.3,   -0.4,  -12.4,    4.7,   -0.9,   -4.7,  -14.0,    7.5,    6.3,   -1.0,   -0.8,   -0.7,   -0.5,   -3.3,   -4.0,    3.7,    7.1,    7.5,   -2.7,  -13.0,  -13.3,  -24.2,  -13.8,  -11.8,  -11.0,  999.0
2000/11/15 12:30,  999.0,   -1.8,   -0.4,    0.1,    0.3,    0.3,   -0.1,   -0.3,   -0.4,   -0.4,    1.1,    0.8,   -0.8,  999.0,  999.0,  999.0,  -12.2,  -12.3,  -10.6,   -8.3,   -4.8,   -2.3,   -1.0,   -1.1,   -1.1,   -0.9,   -1.1,   -0.7,   -0.8,   -0.5,   -0.8,   -1.0,   -0.8,   -0.9,   -1.1,   -0.9,   -0.6,   -0.6,   -1.2,   -0.9,   -0.6,   -1.1,   -0.8,   -0.8,   -1.2,   -0.8,   -0.6,   -0.8,   -1.2,   -0.7,   -0.4,   -0.5,   -0.9,   -0.7,   -1.0,   -0.9,   -0.9,   -0.7
2000/11/15 12:40,  999.0,    0.5,    0.5,    0.2,    1.4,    0.2,   -0.0,    0.3,    0.2,    0.8,    2.1,  999.0,  -10.0,  -21.9,  -21.4,  -19.8,  -15.6,  -11.3,   -8.8,   -6.0,   -3.0,   -1.8,   -0.5,  999.0,   -0.8,   -1.0,   -0.5,   -0.8,   -0.5,   -1.0,   -0.8,   -0.8,   -1.0,   -0.7,   -0.6,   -1.1,   -0.6,   -0.6,   -0.7,   -0.2,   -0.5,   -0.3,   -0.6,   -0.6,   -0.4,   -0.9,   -3.0,   -9.6,  -14.4,   -0.9,   -0.7,  -13.2,   -7.5,   -5.5,   -1.2,   -7.7,  -11.1,  -14.2
2000/11/15 12:50,  999.0,   -0.6,   -0.4,   -1.3,   -0.3,    0.1,    0.2,    0.1,    0.5,    1.8,    1.4,    1.9,  -21.3,  -21.6,  -14.1,  -10.7,  -18.5,   -8.2,  -22.3,  -22.4,  -22.8,  -13.4,  -35.0,  999.0,  999.0,  -40.1,  -41.9,  -24.3,   -5.4,   -4.4,  -16.2,   -2.0,  -10.9,   -0.6,    9.9,   20.5,   -1.6,   -0.9,   -1.3,    9.8,    6.3,   20.4,   -0.7,   13.6,  999.0,   16.5,   -0.4,   -0.3,   13.6,   -0.5,   -0.4,    6.5,   13.5,   -0.7,    9.9,   -0.9,   -0.6,   -0.7
2000/11/15 13:00,  999.0,   -2.0,   -1.7,   -0.7,    0.2,   -0.5,   -0.5,   -0.6,   -0.2,   -2.5,   -2.3,   -2.0,  999.0,  999.0,  -21.0,  -14.6,  -21.5,  -19.7,  999.0,  -17.3,  -16.1,  -14.2,  -13.1,  999.0,  -10.0,   -8.7,   -7.6,  -17.8,  -22.4,  -14.5,  -14.5,  999.0,   -0.8,   -1.1,   -0.4,  999.0,   -1.3,  999.0,  -14.7,  -13.3,  -21.1,  -14.7,  -21.0,   -8.1,   -0.5,   -1.0,  -35.0,   -8.2,   -0.4,   -0.7,   -9.2,   -0.6,   -1.4,   -0.8,   -1.1,   -0.5,  -10.8,   -1.1
2000/11/15 13:10,  999.0,    2.5,    0.5,    2.6,    2.3,    2.1,    1.3,    1.1,   -0.7,    1.3,    0.8,    1.0,  999.0,   -4.8,  999.0,   -4.0,  999.0,  999.0,  999.0,  999.0,    4.1,  -26.8,  999.0,  999.0,  999.0,  999.0,  -22.0,  999.0,   -7.0,  999.0,  999.0,   -1.9,   -1.0,  999.0,   -1.0,  -19.0,   -8.8,   -5.2,   -3.9,   -3.0,   -2.3,   -1.1,   -0.5,  999.0,   -0.5,   -0.8,   -1.4,   -0.3,   -0.9,   -1.0,   -0.8,   -0.6,   -0.5,   -0.9,   -0.8,   -0.2,   -0.7,   -0.7
2000/11/15 13:20,  999.0,    0.2,   -0.2,   -0.2,    0.1,    0.1,    1.3,    0.9,    0.3,   -0.4,    0.5,    0.8,    1.0,  999.0,  999.0,    0.7,    1.4,  999.0,    2.4,  999.0,  999.0,  999.0,    3.8,    5.5,  999.0,  999.0,  999.0,    6.7,  999.0,  999.0,   -3.2,   -2.9,   -4.7,   -0.9,   -1.3,   -0.6,   -0.7,   -0.8,   -0.4,   -0.8,   -0.2,   -0.9,    3.3,   -0.7,   -0.9,   -1.4,   -0.4,    0.2,   -0.8,   -0.8,   20.3,   -0.6,    6.2,    9.5,   20.6,   -0.7,   20.7,   13.4
2000/11/15 13:30,  999.0,   -1.2,   -2.3,    2.4,    1.5,    2.1,    0.9,    0.8,    1.6,    1.1,    0.5,    0.5,    0.1,   -0.5,    0.9,   -2.1,   -2.7,   -7.1,   -0.9,  999.0,  999.0,  -17.3,    8.9,  -22.9,  999.0,   13.1,   -4.2,   -4.0,  -21.0,   -2.9,   -2.8,   -0.7,  -12.9,    7.3,    7.7,  999.0,  999.0,   -0.3,   -4.0,   -8.9,  -31.7,  -16.5,  -15.9,   -0.8,  -16.8,   -0.9,  -21.1,  -18.1,  -12.4,   -0.5,  -38.2,   -9.3,   -2.2,  -11.9,  -40.8,  -16.0,   -0.9,  -11.3
2000/11/15 13:40,  999.0,    3.6,    2.6,    3.2,    3.7,    4.2,    5.3,    4.2,    0.6,    1.7,    1.6,    0.4,   -0.8,  999.0,  999.0,   -1.2,   -0.9,   -2.2,   -2.9,   -6.0,   -5.3,   -5.8,  -11.3,  -13.1,  -13.8,  -14.8,  -23.0,  999.0,   -4.7,  -17.4,  -18.2,  999.0,   -7.6,   -7.2,  -22.5,  999.0,   -5.9,  -17.3,  -18.5,  999.0,  -41.9,  -26.6,  -42.4,  -35.6,  -35.5,  -39.6,  -31.0,  -27.5,  -42.1,  -41.4,  -31.1,  -34.8,  -27.8,  -21.0,  -42.1,  -41.8,  -20.3,  -21.1
2000/11/15 13:50,  999.0,  999.0,    2.6,    1.0,    1.0,    1.1,    0.4,    1.7,    1.5,    1.4,    2.1,    2.5,    2.0,    0.9,   -0.3,   -5.3,  -12.5,  -17.0,  -18.2,  -20.5,  -23.4,  -24.4,  -24.0,  -25.4,  -26.3,  -27.0,  -27.0,  -26.5,  -24.4,  -26.5,  -30.6,  -42.2,  -41.8,  -41.9,  -41.6,  -41.9,  -41.9,  -41.6,  -41.9,  -42.3,  -42.2,  -42.0,  -42.2,  -42.1,  -41.6,  -41.6,  -41.7,  -42.4,  -41.6,  -41.9,  -41.3,  -38.0,  -34.5,  -31.2,  -41.6,  -30.5,  -21.6,  -21.6
2000/11/15 14:00,  999.0,    1.7,    0.7,    1.4,    0.6,   -0.3,   -0.2,    1.2,    2.0,    1.9,    2.5,    2.5,    2.3,    2.2,    0.5,   -1.4,   -4.0,   -6.4,   -8.7,  -11.6,  -14.4,  -16.5,  -18.5,  -20.4,  -21.9,  -24.4,  -25.3,  -27.5,  -14.1,  -23.6,  -23.6,  -14.4,  999.0,  999.0,  999.0,   -8.1,  -28.2,  -17.8,   -6.3,  -16.6,  -41.7,  -31.8,  -35.0,  -31.2,  -31.7,  -41.3,  -41.4,  -35.9,  -38.2,  -42.0,  -40.2,  -42.2,  999.0,  -41.3,  -41.6,  -42.0,  -21.3,  999.0
2000/11/15 14:10,  999.0,    1.4,    0.8,    2.4,    0.5,    0.4,    0.2,    0.9,    1.6,    1.6,    1.6,    2.1,    2.6,    1.7,   -0.0,   -2.6,   -3.1,   -3.1,   -3.9,   -6.1,   -9.1,  -11.8,  -12.1,  -11.5,  -11.0,  -11.7,   -7.4,   -9.0,  -10.9,  -10.5,  -29.6,   10.4,  999.0,   -1.1,   -0.5,  999.0,   -0.8,   -0.9,   -1.1,   -1.0,   -1.2,  -12.5,  -11.4,   -1.2,   -0.3,   -0.5,   -6.3,   -5.1,   -0.7,   -5.0,    9.7,   -0.6,   -1.0,   -0.7,   -0.8,   -0.9,   -0.9,   -0.5
2000/11/15 14:20,  999.0,    1.0,    1.5,    1.5,    0.5,   -0.1,   -0.2,    1.3,    2.0,    2.9,    3.9,    3.8,    3.3,    2.9,    3.4,    1.8,    2.4,    1.6,    2.3,   -1.7,   -6.1,  -13.8,  -19.5,  -23.3,  -26.5,  -26.2,  -25.9,  -25.8,  -26.7,  999.0,  999.0,  -21.2,  -20.9,  -22.1,  -13.4,   -3.8,   -1.1,  -12.9,  -21.4,  999.0,   -0.9,   -0.6,   -1.3,  999.0,   -6.9,  -16.4,   -3.8,   -0.8,  999.0,   -1.2,  999.0,   -1.2,  999.0,   -1.8,   -0.4,   -1.3,   -0.8,   -0.6
2000/11/15 14:30,  999.0,    1.6,    0.9,    1.4,    1.5,    2.6,    2.0,    1.7,    3.2,    4.0,    3.9,    3.8,    3.6,    2.8,    1.8,    0.5,   -0.4,   -0.9,   -1.9,   -0.5,   -6.1,  -14.5,   -6.8,   -9.2,  -10.2,   -7.3,   -4.9,   -1.0,    1.9,  -10.3,  -11.2,  -17.6,    6.0,  999.0,  999.0,  -42.1,  -40.8,   15.0,  -21.8,  -10.2,  -41.7,   -0.8,  -21.4,  999.0,  999.0,  -21.0,   -0.7,  -14.4,  -14.3,  -20.8,   -0.5,   -0.4,  -11.1,  -15.0,  -13.3,   -8.4,   -7.2,   -1.1
2000/11/15 14:40,  999.0,    1.1,    1.6,    2.0,    1.4,    3.3,    1.6,    2.9,    3.0,    2.3,    2.6,    1.7,    1.3,    1.9,    1.4,   -0.4,   -0.3,   -0.5,   -0.9,    0.1,    0.3,    0.6,   -2.0,   -3.1,   -3.5,   -5.9,   -7.3,   -9.3,  -10.7,  -12.0,  -10.2,   -7.4,    7.0,  999.0,  999.0,  -41.2,  -41.9,  -41.6,  999.0,  -21.1,  -20.9,  999.0,  -18.8,  -17.0,  999.0,  -14.1,   -8.7,   -7.5,   -6.4,   -5.3,   -0.4,  999.0,  999.0,   -0.9,   -0.7,   -0.9,   -0.8,   -0.7
2000/11/15 14:50,  999.0,   -0.2,  999.0,    1.1,    4.1,   -7.7,   -7.3,   -7.6,   -6.1,    4.1,    4.3,    4.1,    2.6,    3.3,    1.2,   -3.5,   -9.4,  -15.3,  -18.1,  999.0,  999.0,  999.0,    0.8,    1.4,   14.7,   -6.0,   -6.1,  999.0,  999.0,  999.0,    5.5,    4.5,    9.0,   10.6,    8.8,    8.7,    9.7,  999.0,    8.9,  999.0,   -0.8,   -0.8,   -0.6,  999.0,  999.0,   -0.3,   -0.5,   -0.6,   -0.4,   -1.5,   -2.9,   -1.2,  -21.3,   -0.1,   -1.5,   -1.5,   -0.1,   -1.0
2000/11/15 15:00,  999.0,    1.5,    1.6,  -10.1,  -11.0,   -5.4,   -4.3,   -3.6,   -4.0,   -6.0,   -3.7,  999.0,   -3.0,  999.0,  999.0,  999.0,  999.0,  999.0,  999.0,  999.0,   19.9,   18.8,   17.3,   14.1,   13.0,    6.3,    3.0,   -0.6,   16.7,   18.4,    8.9,   -3.9,    9.0,    6.6,   12.3,   10.4,  999.0,   -0.8,   -0.7,  999.0,   -6.1,  -16.3,   -0.7,   -0.5,   -1.5,   -0.2,  -27.9,  -35.5,  -15.4,  999.0,   -2.6,  -11.3,   -0.3,  -10.7,  -11.1,  -22.0,  999.0,  -21.2
2000/11/15 15:10,  999.0,    2.4,    2.0,    1.2,    1.5,    2.1,    2.8,    2.9,    3.1,    3.3,    2.0,    1.6,    1.1,    1.7,    2.7,    3.3,    1.2,  999.0,  -12.0,    0.8,    6.1,    6.4,   12.0,   16.3,   16.1,   15.9,   16.7,   11.1,    4.7,   18.4,   16.5,   15.6,   12.7,  999.0,   12.8,  999.0,  999.0,   -8.8,  -14.5,   -7.2,   -5.5,   -2.4,   -5.5,   -6.4,   -6.0,  -41.9,   -0.8,  -14.3,   -0.2,   -0.4,  -14.4,   -0.8,   -0.6,  -41.2,   -1.1,  -14.3,  -21.3,  -20.8
2000/11/15 15:20,  999.0,    1.7,    2.2,    0.6,    0.5,   -0.7,    0.2,    0.4,    0.9,    1.8,    1.7,    1.4,    1.1,    1.2,    0.5,    3.8,    6.6,    6.7,   11.4,   13.4,   15.4,   16.4,   17.6,   18.6,   19.4,   18.7,   18.6,   18.3,   18.1,   17.5,   19.1,  999.0,  999.0,  999.0,  999.0,  999.0,   -0.4,   -0.2,   -0.9,  999.0,   -0.7,   -0.4,   -0.1,   -0.4,   -0.2,   -1.1,   -3.1,   -5.4,  -15.6,  -21.3,  -11.1,  -10.9,   -0.6,  -11.9,  -21.2,  -21.0,  -21.5,  -21.5
2000/11/15 15:30,  999.0,    1.2,    1.2,    1.2,    0.5,    0.3,   -0.5,   -5.5,   -2.7,    1.7,    1.0,    0.2,   -0.1,   -1.1,   -3.8,   -7.1,  -13.2,  -17.9,  -18.4,   -8.2,   -6.6,   -6.8,   -6.8,   -6.7,   -6.8,  -20.7,   -3.0,   -1.6,   -3.5,   15.7,  999.0,   41.0,   41.6,   42.8,   42.5,  999.0,   21.5,   13.9,    3.1,    8.1,    5.4,   20.8,   10.6,    8.9,   -8.3,    9.5,   10.0,   18.0,   13.3,   34.2,    6.5,    6.7,    1.9,   -0.5,   -0.6,    9.9,   13.1,   20.5
2000/11/15 15:40,  999.0,    5.3,    0.8,    2.3,    1.6,    0.9,    1.8,    1.3,    1.2,    2.4,    2.0,    2.1,    1.0,   -1.2,   -2.8,   -8.0,   -6.8,   -5.4,   -4.6,   -8.7,   -7.5,   -7.5,   -7.5,   -2.4,  -11.1,   -2.6,   -2.9,  -15.5,  -23.8,  999.0,  999.0,  999.0,  -17.2,  -36.8,  999.0,  -36.0,  -42.2,  -29.0,   -1.3,  -21.2,  -41.9,  -41.7,  999.0,  999.0,  -41.9,  -41.3,  -42.1,  -21.3,  -27.8,  -28.2,  -41.7,  -41.5,  -27.9,  -41.3,  -28.1,  -28.1,  -42.6,  -41.7
2000/11/15 15:50,    1.8,    7.3,    5.2,    3.9,    3.1,    3.1,    3.4,    3.0,    2.9,    2.9,    2.9,    2.2,    2.1,    1.9,    0.9,   -0.9,   -6.0,   -7.9,   -9.8,   -9.0,  -16.2,  -15.1,  -21.3,  -15.4,   -2.4,  -21.8,   -8.6,   -1.7,  999.0,  -27.9,  -27.5,  999.0,  999.0,  999.0,  999.0,  999.0,  999.0,  -41.7,  -13.6,  -24.4,  -22.0,  -24.3,  -42.0,  -42.1,  -36.8,  -41.8,  -24.7,  -33.1,  -42.4,  -36.6,  -41.5,  -41.7,  -34.3,  -41.3,  -10.5,   -0.4,  -31.0,  -27.4
2000/11/15 16:00,    2.6,    6.8,    8.1,    7.9,    6.6,    5.8,    3.6,    2.9,    3.0,    3.0,    2.6,    3.5,    3.2,    2.7,    2.3,    1.2,   -2.2,   -6.1,  -10.7,  -14.4,  -17.5,  -19.5,  -21.6,  -23.2,  -24.0,  -24.1,  -26.0,  -23.3,  -28.8,  -29.1,  -42.1,  999.0,   -2.8,  -41.3,  -41.7,  999.0,  999.0,  -41.9,  -41.5,  -13.3,  -22.9,  -24.2,   -4.7,  -41.8,  999.0,  -42.0,  -42.1,  -41.7,  -41.6,  -41.7,  -27.9,  -31.6,  -20.5,  -41.4,  -20.7,  -41.8,  -44.0,  -42.9
2000/11/15 16:10,  999.0,  -19.4,   -6.1,    1.0,   -6.1,   -7.5,   -7.7,  -14.6,   -7.3,   -3.4,   -4.7,   -8.6,   -4.4,   -1.2,    2.5,    2.9,    2.5,   -8.4,   -5.1,   -3.3,   -8.4,   -5.5,   -5.1,    2.4,    3.2,   -2.9,   -5.3,   -4.6,   -4.8,   -5.4,   -6.4,   -8.4,   -9.5,  -10.2,  -10.2,  -11.7,  -11.4,  -10.6,   -9.9,   -9.7,   -9.0,   -8.9,   -9.3,   -9.9,  -11.6,  -11.9,  -12.1,  -12.5,  -12.7,  -12.8,  -13.0,  -12.1,  -12.1,  -13.2,  -13.0,  -13.7,  -12.8,  -10.4
2000/11/15 16:20,    2.2,    1.6,    3.6,    5.3,    5.3,    6.0,    5.3,    6.2,    5.7,    4.3,    1.4,   -0.4,    3.9,    5.3,    4.4,    2.4,    1.5,    0.5,    0.0,   -1.5,   -0.9,   -0.6,   -0.7,   -0.2,    1.6,    1.0,    1.2,   -0.5,   -2.1,   -2.9,   -7.5,   -9.7,  -11.8,   -6.0,  -10.9,   -7.9,   -7.7,   -7.6,   -6.0,   -5.8,  -11.4,   -9.4,   -9.3,   -8.3,   -6.3,    0.7,    3.5,   -3.7,    6.5,    3.4,   -1.6,    6.0,    4.4,   -2.6,    6.0,   -1.9,    3.2,   11.2
2000/11/15 16:30,    1.0,   -2.5,    0.1,    0.9,    2.3,    2.3,    2.9,    5.0,   -1.9,   -6.9,   -5.8,  999.0,  999.0,  999.0,  999.0,  999.0,    4.1,    7.0,    8.9,   10.1,   11.5,   11.6,   11.4,   12.0,   12.4,   12.4,   12.6,   13.1,  999.0,  999.0,  999.0,  999.0,    7.0,    6.4,    5.4,  999.0,  999.0,    4.7,    4.4,  999.0,  999.0,  999.0,  999.0,  999.0,  999.0,  999.0,  999.0,    3.8,  999.0,  999.0,  999.0,   -3.7,   -5.5,   -3.1,   -2.5,   -2.2,   -2.4,   -4.3
2000/11/15 16:40,  999.0,  999.0,  -22.6,  999.0,  -23.8,  999.0,  -24.4,  -22.9,  999.0,  999.0,  -14.1,  -12.7,  -10.2,  999.0,  999.0,  999.0,  999.0,  999.0,  999.0,  999.0,  999.0,  999.0,  999.0,  999.0,  999.0,  999.0,  999.0,  999.0,  999.0,  999.0,  999.0,  999.0,  999.0,  999.0,  999.0,  999.0,  999.0,  999.0,  999.0,  -22.9,  -21.2,  -19.5,  -17.1,  -15.4,  -15.4,  -15.9,  -14.3,  -13.8,  -13.6,  -11.7,  -13.3,  -13.8,  -13.2,  -11.5,  -11.8,   -9.0,   -7.9,   -7.4
2000/11/15 16:50,   -4.9,   -4.8,  -11.7,  999.0,  999.0,  -10.0,  -16.9,   -9.5,   -8.0,   -8.5,   -7.3,  -21.1,  999.0,   -0.1,    0.3,    0.3,    1.2,    1.9,  999.0,  999.0,   -7.7,   -4.5,   -1.3,   -5.6,   -1.7,    0.2,  -14.1,  -12.8,   -2.5,   -0.9,   -3.7,   -2.5,   -4.9,   -3.6,   -4.0,   -2.3,   -2.7,   -0.9,   -3.3,   -6.1,   -5.3,   -5.8,  -10.0,   -9.2,   -8.5,   -7.2,  -11.1,   -9.0,   -8.0,   -8.4,   -8.3,   -9.3,   -8.3,  -13.8,  -12.5,  -10.3,  -12.4,   -9.7
2000/11/15 17:00,  999.0,  999.0,   -0.0,    4.8,    5.4,    6.3,    1.6,    1.9,   -0.2,   -0.2,    0.1,    0.9,    0.9,    0.3,    0.6,    1.3,    1.1,    1.2,    1.3,    0.9,    0.4,    0.4,    0.9,    0.3,    1.2,    2.3,    2.9,    2.5,    0.9,   -1.5,   -2.4,   -4.3,   -6.0,   -4.7,   -5.7,   -5.1,   -5.0,   -4.5,   -4.0,   -4.0,   -4.5,   -5.2,   -6.0,   -6.0,   -4.1,   -5.5,   -5.7,   -6.7,   -7.6,   -8.5,   -8.1,   -8.2,   -7.5,   -7.0,   -5.5,   -5.0,   -4.9,   -5.3
2000/11/15 17:10,  999.0,    1.0,    2.2,    3.5,    2.7,    2.1,    1.8,    2.1,    1.9,    2.0,    1.2,    0.6,    0.2,   -0.2,   -0.4,   -0.4,   -0.4,   -0.5,   -0.9,   -1.5,   -1.9,   -2.7,   -2.1,   -1.6,   -0.3,   -0.2,   -1.3,   -1.3,   -1.6,   -1.5,   -1.8,   -2.5,   -3.1,   -4.6,   -4.5,   -4.1,   -4.9,   -5.6,   -6.0,   -6.9,   -8.4,   -9.9,  -11.1,  -11.3,  -10.2,   -8.4,   -7.1,   -6.5,   -5.9,   -5.2,   -4.0,   -2.3,   -1.5,   -0.7,   -0.7,   -0.9,   -1.2,   -0.9
2000/11/15 17:20,  999.0,   -0.3,    1.2,    2.2,    2.1,    1.6,    1.9,    2.0,    2.0,    1.8,    1.1,    0.2,    0.1,    0.1,    0.1,   -0.2,   -0.7,   -0.4,    0.3,    0.1,   -0.1,   -0.3,   -0.5,   -0.2,   -0.3,   -0.5,   -1.0,   -1.1,   -1.8,   -3.5,   -4.3,   -4.3,   -4.3,   -5.3,   -6.0,   -5.8,   -5.0,   -4.7,   -4.7,   -4.7,   -4.7,   -5.1,   -5.5,   -5.4,   -4.2,   -4.0,   -3.5,   -3.2,   -2.5,   -1.7,   -0.4,    0.0,    0.2,   -0.4,   -0.8,   -1.1,   -0.7,   -1.0
2000/11/15 17:30,  999.0,    1.1,    1.3,    0.8,    0.3,    0.7,    1.1,    0.8,   -0.1,   -1.1,   -1.6,   -1.5,   -1.6,   -2.1,   -2.1,   -2.1,   -1.8,   -0.9,   -1.0,   -1.5,   -1.4,   -1.4,   -1.6,   -1.1,   -1.1,   -1.4,   -0.6,   -0.9,   -1.9,   -2.1,   -2.6,   -3.6,   -4.2,   -5.8,   -7.0,   -8.0,   -8.1,   -7.6,   -6.9,   -6.6,   -6.3,   -5.8,   -5.3,   -4.5,   -3.9,   -2.9,   -1.6,   -1.4,   -1.4,   -1.5,   -2.0,   -2.1,   -1.6,   -0.8,   -0.2,    0.8,    1.3,    1.8
2000/11/15 17:40,  999.0,  999.0,    1.7,    1.6,    0.5,    0.4,    0.3,    0.9,    1.2,    0.2,    0.0,    0.2,   -0.0,    0.2,    0.5,   -2.0,   -1.4,   -0.8,   -0.1,    0.1,    1.0,    0.8,    1.3,    1.2,    1.9,    2.7,    2.6,    2.1,    0.8,    0.1,    1.8,    0.2,   -1.1,   -1.8,   -2.2,   -2.1,   -1.8,   -1.0,    0.4,    1.4,    1.9,    4.6,    3.7,    3.6,    4.2,    4.8,    4.5,    3.6,    2.9,    2.5,   -0.6,    3.7,    5.1,    4.1,    3.4,    2.9,    3.6,    3.7
2000/11/15 17:50,  999.0,    0.2,    0.2,   -0.7,   -1.5,    0.1,   -0.7,   -1.7,   -1.7,   -0.3,   -0.5,   -1.1,   -0.5,    0.1,   -0.2,   -1.0,  999.0,  999.0,  999.0,  999.0,  999.0,  999.0,  999.0,  999.0,  999.0,  999.0,  999.0,  999.0,  999.0,  999.0,  999.0,  999.0,  999.0,  999.0,  999.0,  999.0,  999.0,  999.0,  999.0,  999.0,  999.0,  999.0,  999.0,  999.0,  999.0,  999.0,  999.0,  999.0,  999.0,  999.0,  999.0,  999.0,  999.0,  999.0,  999.0,  999.0,  999.0,  999.0
2000/11/15 18:00,  999.0,  999.0,   -1.8,   -0.5,   -2.6,   -2.4,   -2.1,   -2.0,   -2.3,   -2.7,   -8.8,  -16.3,  -11.7,  -15.8,  -15.7,  -15.0,  -14.7,  -14.1,  -13.6,  -13.0,  -12.6,  -12.8,  -13.2,  -13.4,  -12.3,  -11.6,  -10.7,  999.0,  -11.7,  -10.9,  -10.3,  999.0,  999.0,  999.0,  999.0,  999.0,  999.0,  999.0,  999.0,  999.0,  999.0,  999.0,  999.0,  999.0,  999.0,  999.0,  999.0,  999.0,  999.0,  999.0,  999.0,  999.0,  999.0,  999.0,  999.0,  999.0,  999.0,  999.0
2000/11/15 18:10,  999.0,  999.0,   -2.9,   -1.4,   -1.4,   -1.7,   -0.2,  999.0,  -14.7,   -8.1,   -9.4,   -9.7,   -9.8,  -10.6,  -11.3,  -11.8,  -12.6,  -13.5,  -13.0,  -11.7,  -10.4,   -9.7,   -9.3,   -9.7,   -9.1,   -8.0,   -8.2,   -7.3,   -6.6,   -6.7,   -7.2,   -7.6,   -7.4,   -6.9,   -7.4,  999.0,  999.0,  999.0,  999.0,  999.0,  999.0,  999.0,  999.0,  999.0,  999.0,  999.0,  999.0,  999.0,  999.0,  999.0,  999.0,  999.0,  999.0,  999.0,  999.0,  999.0,  999.0,  999.0
2000/11/15 18:20,  999.0,  999.0,  999.0,   -3.3,   -2.2,   -1.8,   -3.0,  999.0,  -15.9,  -16.5,  -16.2,  -16.2,  -15.9,  -16.4,  -17.8,  -18.1,  -17.9,  -17.0,  -15.7,  -14.3,  -13.2,  -12.8,  -12.1,  -12.1,  -12.3,  -12.2,  -11.7,  -11.9,  -12.1,  -11.4,  999.0,  -10.2,  -10.6,   -9.7,  -10.0,  -10.0,   -9.2,   -9.1,   -9.9,  -10.2,  -10.1,  -10.1,   -9.4,  -10.0,  -10.1,  -10.2,  -10.7,  -11.2,  -10.7,  -10.5,  -10.7,  -11.2,  -10.8,  -11.4,  -12.0,  999.0,  999.0,  999.0
2000/11/15 18:30,  999.0,  999.0,  999.0,   -1.6,   -1.1,   -2.6,   -3.1,   -6.7,  -12.1,  -13.4,  -14.4,  -14.3,  999.0,  999.0,  -13.8,  -13.3,  -11.8,  -12.8,  -13.6,  -14.3,  -14.7,  -14.4,  -13.3,  -12.7,  -12.1,  -10.7,   -9.2,   -9.5,   -8.3,  -10.2,   -7.8,   -8.3,   -7.6,   -8.9,   -9.5,  -10.1,  -10.3,  -10.4,  -10.5,  -11.1,  -11.4,  -11.9,  -11.8,  -12.4,  -12.7,  -13.3,  -13.2,  -12.9,   -9.1,  -12.9,   -9.4,  999.0,  999.0,  999.0,  999.0,  999.0,  999.0,  999.0
2000/11/15 18:40,  999.0,  999.0,  999.0,  999.0,  999.0,   -5.4,   -1.2,   -8.5,  -12.2,  -13.8,  -13.7,  -14.1,  -13.6,  -12.8,  -13.7,  -14.1,  -12.2,   -8.6,   -8.8,   -8.9,   -9.1,   -9.3,   -9.8,  -10.3,   -8.5,   -8.2,  -11.4,  -11.4,  -10.8,  999.0,  999.0,  999.0,  999.0,  999.0,  999.0,  999.0,  999.0,  999.0,  999.0,  999.0,  999.0,  999.0,  999.0,  999.0,  999.0,  999.0,  999.0,  999.0,  999.0,  999.0,  999.0,  999.0,  999.0,  999.0,  999.0,  999.0,  999.0,  999.0
2000/11/15 18:50,  999.0,  999.0,  999.0,   -7.4,   -2.9,  -15.3,  -17.1,  -14.7,  -14.1,  -13.4,  -11.4,   -9.9,  -10.6,  -10.6,  -10.2,   -9.6,   -8.4,   -7.5,   -7.6,   -6.7,   -6.1,   -5.5,   -4.9,   -6.6,   -6.5,   -7.3,   -8.4,   -9.3,  -10.0,   -9.4,   -9.4,   -9.2,   -9.1,   -8.9,   -8.0,   -6.9,   -5.9,   -5.5,   -4.9,   -4.3,   -3.6,   -4.9,   -3.2,   -6.0,   -6.2,  999.0,  999.0,  999.0,  999.0,  999.0,  999.0,  999.0,  999.0,  999.0,   -1.9,   -1.3,   -2.4,   -2.7
2000/11/15 19:00,  999.0,  999.0,  999.0,   -1.7,    2.6,    2.0,  999.0,  999.0,  -19.3,  -14.6,  -11.5,  -11.8,  -11.1,  -10.7,  -12.8,  -13.9,  -12.0,   -9.8,   -9.7,   -9.7,  -11.6,  -10.8,   -8.6,   -8.7,   -9.0,   -9.6,  -11.2,  -11.0,  -11.6,  -11.8,  -11.3,  -10.6,  -10.0,   -8.8,   -8.1,   -5.5,   -5.2,   -5.8,   -5.1,   -5.1,   -4.8,   -4.4,  999.0,   -0.4,  999.0,   -1.5,  999.0,  999.0,   -2.6,   -2.9,   -1.1,   -0.5,   -1.2,   -2.9,   -3.3,   -2.5,   -1.7,   -2.0
2000/11/15 19:10,  999.0,    3.4,    0.8,   -1.6,   -0.8,   -0.5,    0.8,   -5.4,   -4.1,  999.0,   -8.0,   -7.2,  -10.9,  -11.2,  -16.8,  -16.8,  -17.0,  -15.2,  -12.0,  -15.3,   -9.0,   -9.6,   -8.1,   -8.7,   -7.9,   -7.2,  -12.6,   -6.7,   -9.3,  -10.4,  -10.2,   -6.3,   -5.1,  999.0,  999.0,   -0.1,   -3.4,   -2.0,    0.0,  999.0,  999.0,   -2.0,  999.0,   -4.8,   -5.4,   -5.2,   -4.2,   -5.4,   -5.5,   -4.7,   -5.5,   -5.5,   -6.1,   -6.0,   -5.5,   -4.7,   -5.3,   -5.5
2000/11/15 19:20,  999.0,   -5.4,   -1.9,   -7.6,    4.0,   -6.3,   -7.3,   -4.6,   -0.7,   -2.7,   -5.4,   -5.6,  999.0,    5.4,  999.0,  -12.9,   -9.4,   -6.3,   -3.5,   -2.5,   -1.4,   -2.5,   -3.2,   -3.1,   -3.8,   -3.8,   -2.1,   -0.6,   -2.7,   -4.6,   -2.8,   -2.5,   -3.4,   -4.1,   -4.9,   -2.5,   -2.7,   -6.3,  -12.7,  999.0,  999.0,  -10.9,   -9.8,  -13.0,  -11.2,   -8.9,   -6.7,   -5.8,   -4.8,   -5.0,   -5.2,   -4.5,   -4.2,   -3.3,   -3.6,   -4.1,   -4.0,   -3.8
2000/11/15 19:30,  999.0,  999.0,  999.0,  999.0,  999.0,  -15.0,  -13.2,  -10.9,   -6.5,   -8.7,   -5.6,   -1.7,    0.9,    2.9,    4.4,    4.2,    3.9,    3.8,    5.0,    5.2,    3.3,    6.7,  999.0,  999.0,  999.0,  999.0,  999.0,  999.0,  999.0,   16.9,   16.8,   15.3,   16.5,   17.8,  999.0,  999.0,  999.0,  999.0,  999.0,  999.0,  999.0,  999.0,  999.0,  999.0,  999.0,  999.0,  999.0,  999.0,  999.0,  999.0,  999.0,  999.0,  999.0,  999.0,  999.0,  999.0,  999.0,  999.0
2000/11/15 19:40,  999.0,   -0.3,  999.0,    3.3,  -14.5,  -20.2,  -10.5,  -10.5,   -5.4,   -7.1,  999.0,  999.0,  999.0,  -11.3,  -10.9,  -12.8,  -13.2,  -14.3,  -14.5,  -15.2,  999.0,  999.0,  999.0,  999.0,  999.0,  999.0,  999.0,  999.0,  999.0,  999.0,  999.0,  999.0,  999.0,  999.0,  999.0,  999.0,  999.0,  999.0,  999.0,  999.0,  999.0,  999.0,  999.0,  999.0,  999.0,  999.0,  999.0,  999.0,  999.0,  999.0,  999.0,  999.0,  999.0,  999.0,  999.0,  999.0,  999.0,  999.0
2000/11/15 19:50,  999.0,    3.8,    0.4,   -4.2,   -4.5,   -4.9,   -1.5,    0.0,    0.9,    0.6,   -1.3,   -0.9,   -2.0,    0.3,   -0.1,   -1.0,    0.2,   -6.8,   -2.5,  999.0,   -6.5,   -2.3,   -2.4,   -0.4,  999.0,  999.0,  999.0,   -6.5,  999.0,  999.0,   -4.1,   -8.3,   -7.2,   -7.9,   -9.4,   -9.0,   -5.6,   -5.2,   -6.9,   -7.7,  999.0,  999.0,  999.0,  999.0,  999.0,  999.0,  999.0,  999.0,  999.0,  999.0,  999.0,  999.0,  999.0,  999.0,  999.0,  999.0,  999.0,  999.0
2000/11/15 20:00,  999.0,    1.0,   -0.6,    1.8,    1.0,   -0.1,    0.9,    0.3,    0.4,    1.7,   -1.2,   -3.5,   -2.5,    2.0,   -0.5,   -1.4,  999.0,  999.0,  999.0,  999.0,  999.0,  999.0,  999.0,  999.0,  999.0,  999.0,  999.0,  999.0,  999.0,  999.0,  999.0,  999.0,  999.0,  999.0,  999.0,  999.0,  999.0,  999.0,  999.0,  999.0,  999.0,  999.0,  999.0,  999.0,  999.0,  999.0,  999.0,  999.0,  999.0,  999.0,  999.0,  999.0,  999.0,  999.0,  999.0,  999.0,  999.0,  999.0
2000/11/15 20:10,  999.0,    0.3,    0.7,   -1.2,  999.0,    2.1,  999.0,  999.0,    0.2,    0.6,    1.4,   -1.2,   -2.5,   -1.7,   -1.0,   -1.3,   -0.4,   -1.0,  999.0,   -2.3,  999.0,   -2.6,   -3.4,   -3.5,   -3.5,   -2.3,   -2.2,   -1.2,  999.0,  999.0,   -4.0,  999.0,   -4.3,  999.0,  999.0,  999.0,   -4.7,   -4.8,  999.0,  999.0,  999.0,  999.0,  999.0,  999.0,  999.0,  999.0,  999.0,  999.0,  999.0,  999.0,  999.0,  999.0,  999.0,  999.0,  999.0,  999.0,  999.0,  999.0
2000/11/15 20:20,  999.0,  999.0,    2.3,    1.1,   -2.3,   -0.3,    1.1,   -1.8,    0.7,    1.2,   -1.6,    3.5,    7.7,    8.4,    1.6,   -0.9,   -0.6,    0.3,  999.0,  999.0,  -12.0,  999.0,  999.0,    2.6,   -2.3,   -3.1,  999.0,    6.1,   -3.3,    1.7,    0.5,    0.9,   -1.3,   -0.1,   -0.9,   -0.4,    3.0,    2.6,    3.3,  999.0,  999.0,  999.0,  999.0,  999.0,  999.0,  999.0,  999.0,  999.0,  999.0,  999.0,  999.0,  999.0,  999.0,  999.0,  999.0,  999.0,  999.0,  999.0
2000/11/15 20:30,  999.0,  999.0,   -0.6,   -0.9,    2.0,    0.7,  999.0,   -4.2,   -7.8,   -5.8,   -2.8,   -1.6,   -0.4,   -0.3,   -1.0,   -0.2,    0.3,    0.4,    0.3,    0.1,   -1.2,   -3.0,   -2.7,   -8.4,   -8.1,   -7.9,   -8.4,   -9.2,   -9.1,   -9.0,   -9.4,  -10.4,  -11.1,  -12.7,  -12.9,  -16.0,  -16.1,  -17.0,  -16.3,  -17.1,  -19.1,  -17.2,  -15.2,  -11.8,   -7.6,   -6.5,   -6.8,   -7.0,   -7.2,   -7.0,   -7.7,   -7.8,   -7.9,   -7.6,   -7.3,   -7.5,   -7.6,   -8.0
2000/11/15 20:40,  999.0,  -22.7,  -24.3,  -23.2,  -22.1,  -14.8,  -11.6,   -8.6,   -6.0,   -6.5,   -6.8,   -4.4,   -2.3,   -1.7,   -1.7,   -1.2,   -0.5,    0.4,   -1.3,   -2.0,   -2.8,   -2.5,   -3.4,   -3.2,   -2.4,   -1.5,   -2.0,   -2.7,   -3.7,   -4.2,   -4.4,   -4.6,   -5.4,   -5.6,   -6.6,   -7.3,   -8.4,   -9.2,   -9.8,  -10.9,  -12.7,  -14.0,  -13.7,  -10.5,   -7.4,   -7.4,   -7.1,   -7.0,   -7.2,   -7.6,   -8.1,   -8.4,   -8.3,   -7.8,   -7.4,   -7.0,   -7.8,   -7.6
2000/11/15 20:50,  999.0,  999.0,  999.0,  999.0,   -3.6,   -3.5,   -4.4,   -2.9,   -2.2,   -1.8,   -1.9,   -1.7,   -1.3,   -1.0,   -0.2,   -0.2,   -0.5,   -1.5,   -3.7,   -4.5,   -4.3,   -4.0,   -4.6,   -4.7,   -3.9,   -2.7,   -2.6,   -2.4,   -2.7,   -3.0,   -3.1,   -2.9,   -3.2,   -3.9,   -4.5,   -5.8,   -6.4,   -6.4,   -5.9,   -6.3,   -7.2,   -7.4,   -7.0,   -3.8,   -2.2,    4.2,    2.3,    2.1,    0.8,   -1.5,   -3.2,   -4.1,  999.0,  999.0,  999.0,  999.0,  999.0,  999.0
2000/11/15 21:00,  999.0,  -25.3,  -18.8,  -13.2,   -5.9,   -3.9,   -4.5,   -3.6,   -2.7,   -2.6,   -2.2,   -0.6,   -0.4,   -0.7,    0.3,   -0.1,   -0.0,    0.5,   -3.9,   -4.9,   -4.0,   -3.6,   -2.5,   -2.6,   -2.1,   -0.9,   -0.7,   -0.6,   -0.0,   -1.4,   -0.4,    1.4,    2.3,    1.4,    1.3,  999.0,  999.0,  999.0,  999.0,  999.0,  999.0,  999.0,  999.0,  999.0,  999.0,  999.0,  999.0,  999.0,  999.0,  999.0,  999.0,  999.0,  999.0,  999.0,  999.0,  999.0,  999.0,  999.0
2000/11/15 21:10,  999.0,  -16.5,  -14.1,  999.0,  999.0,  999.0,  999.0,   -5.9,   -4.0,   -4.6,   -4.0,   -8.1,   -9.6,   -9.0,  999.0,  999.0,  -11.9,   -1.6,  999.0,  999.0,  999.0,  999.0,  999.0,  999.0,  999.0,  999.0,  999.0,  999.0,  999.0,  999.0,  999.0,  999.0,  999.0,  999.0,  999.0,  999.0,  999.0,  999.0,  999.0,  999.0,  999.0,  999.0,  999.0,  999.0,  999.0,  999.0,  999.0,  999.0,  999.0,  999.0,  999.0,  999.0,  999.0,  999.0,  999.0,  999.0,  999.0,  999.0
2000/11/15 21:20,   17.5,   17.5,  999.0,  999.0,  999.0,  999.0,   -1.7,  999.0,    3.3,   -2.5,   -2.4,   -1.0,   -0.2,    0.5,    1.1,   -2.0,   -1.1,   -0.3,    0.2,    0.8,   -0.8,    1.5,    2.7,    4.5,  999.0,  999.0,  999.0,  999.0,  999.0,  999.0,  999.0,  999.0,  999.0,   17.4,   14.9,   14.2,  999.0,  999.0,   14.1,   14.0,   13.3,  999.0,  999.0,  999.0,  999.0,  999.0,  999.0,  999.0,  999.0,  999.0,  999.0,  999.0,  999.0,  999.0,  999.0,  999.0,  999.0,  999.0
2000/11/15 21:30,   20.2,   16.4,   15.1,   12.2,   14.4,   11.4,   11.3,   10.0,  999.0,    2.7,    0.8,   -1.8,   -0.6,   -2.9,  999.0,   -0.0,   -0.3,   -1.8,   -2.4,   -1.5,    0.2,    2.0,    3.1,    4.8,  999.0,    9.5,   11.7,   11.5,   14.4,   15.3,   17.4,   15.5,   17.6,   16.9,   16.0,  999.0,  999.0,   13.1,  999.0,  999.0,  999.0,  999.0,  999.0,  999.0,  999.0,  999.0,  999.0,  999.0,  999.0,  999.0,  999.0,  999.0,  999.0,  999.0,  999.0,  999.0,  999.0,  999.0
2000/11/15 21:40,   18.6,  999.0,   12.9,   12.9,   12.1,    8.9,   11.5,   10.0,  999.0,    4.5,    0.5,    2.3,    2.2,   -1.7,   -0.7,   -1.3,   -0.7,   -0.6,   -0.7,    0.5,    2.6,    5.9,    5.8,    6.8,    8.6,   11.4,   11.3,   13.2,   15.5,  999.0,  999.0,   17.6,   17.2,   15.0,  999.0,   15.7,   15.9,   14.4,  999.0,   14.1,   14.4,   14.5,   13.8,  999.0,  999.0,  999.0,  999.0,  999.0,  999.0,  999.0,  999.0,  999.0,  999.0,  999.0,  999.0,  999.0,  999.0,  999.0
2000/11/15 21:50,   22.6,  999.0,  999.0,  999.0,   12.2,   10.5,    9.5,    1.1,    0.8,   -0.1,   -0.9,   -1.3,   -0.4,  999.0,  999.0,   -0.4,   -1.0,   -0.8,   -1.2,  999.0,  999.0,  999.0,    6.1,    7.6,  999.0,  999.0,    8.5,  999.0,  999.0,    8.8,   13.0,   11.5,   12.1,    9.8,  999.0,   11.2,   13.7,   12.2,  999.0,  999.0,   15.1,   14.4,  999.0,  999.0,  999.0,  999.0,  999.0,  999.0,  999.0,  999.0,  999.0,  999.0,  999.0,  999.0,  999.0,  999.0,  999.0,  999.0
2000/11/15 22:00,   15.7,   15.8,   16.1,   17.2,   13.0,   10.4,   10.9,    3.8,    8.2,    4.4,    1.5,   -0.0,  999.0,    1.3,    0.2,   -1.8,   -1.9,   -1.3,    0.2,    2.2,  999.0,  999.0,    5.9,  999.0,    6.4,  999.0,  999.0,  999.0,   11.5,   12.2,   11.3,   13.3,   12.9,  999.0,   16.4,   15.7,   15.4,   16.1,   14.3,   14.5,   15.8,   14.8,  999.0,   16.1,  999.0,  999.0,  999.0,  999.0,  999.0,  999.0,   14.4,  999.0,  999.0,  999.0,  999.0,  999.0,  999.0,  999.0
2000/11/15 22:10,   12.6,   19.6,   15.9,   16.7,    8.8,   10.1,    0.4,   -0.6,  999.0,   -0.7,   -2.0,   -1.6,   -0.6,   -0.1,   -1.2,   -1.6,   -2.2,   -3.0,   -1.7,   -0.6,    2.7,  999.0,  999.0,  999.0,    7.7,    6.9,    6.0,    8.4,    8.7,    9.7,   10.4,   11.5,  999.0,  999.0,  999.0,   13.1,   15.0,   15.3,  999.0,  999.0,   14.5,   13.8,  999.0,  999.0,  999.0,  999.0,  999.0,  999.0,  999.0,   14.2,  999.0,  999.0,  999.0,  999.0,  999.0,  999.0,  999.0,  999.0
2000/11/15 22:20,   15.6,   12.7,   12.2,    9.3,    8.0,    4.3,    1.4,   -0.4,   -3.8,   -3.7,   -2.3,   -1.1,    0.8,    0.2,    0.4,   -0.3,   -2.4,   -1.5,    3.2,    2.1,    3.9,    5.6,    6.8,    7.4,    8.3,    8.2,    8.3,    9.9,   12.0,   14.0,   12.7,  999.0,  999.0,  999.0,  999.0,  999.0,  999.0,  999.0,  999.0,  999.0,  999.0,  999.0,  999.0,  999.0,  999.0,  999.0,  999.0,  999.0,   16.3,  999.0,   16.2,   16.1,   16.3,  999.0,  999.0,  999.0,   15.8,  999.0
2000/11/15 22:30,   14.7,   12.7,   10.5,    7.5,  999.0,    7.1,    4.6,    4.1,    1.7,    0.4,   -0.4,   -0.7,    0.2,    0.9,    1.3,    0.7,   -0.4,    1.5,    1.5,  999.0,    3.8,    6.1,  999.0,   10.5,    9.7,    7.1,   10.3,   11.5,   11.4,   12.4,   13.7,  999.0,  999.0,  999.0,   16.3,   15.6,   16.2,  999.0,  999.0,  999.0,  999.0,  999.0,  999.0,  999.0,  999.0,  999.0,  999.0,  999.0,  999.0,  999.0,  999.0,  999.0,  999.0,  999.0,  999.0,  999.0,  999.0,  999.0
2000/11/15 22:40,   15.0,   13.3,   12.2,    8.9,    5.4,    4.0,    1.5,   -0.1,    0.3,   -0.7,   -0.8,   -0.7,    1.8,    3.2,    2.5,  999.0,    2.6,    4.6,  999.0,  999.0,  999.0,  999.0,   10.7,   10.0,   11.6,   12.2,   13.5,   13.0,   14.4,   14.5,   16.0,   14.9,  999.0,  999.0,  999.0,   16.9,   16.9,   16.3,   15.5,  999.0,  999.0,  999.0,  999.0,  999.0,  999.0,  999.0,  999.0,  999.0,  999.0,  999.0,  999.0,  999.0,  999.0,  999.0,  999.0,  999.0,  999.0,  999.0
2000/11/15 22:50,   16.2,   12.0,    8.8,    5.5,    2.8,    1.3,   -1.8,   -3.1,    0.4,   -1.2,   -0.6,   -0.9,  999.0,    2.2,   -0.6,   -0.4,    0.7,    1.9,    4.9,    5.4,    5.8,    7.9,    9.0,    9.8,   11.1,   12.5,   13.5,   13.5,   13.8,   15.0,   16.1,   16.1,  999.0,  999.0,  999.0,   17.6,   16.9,  999.0,  999.0,  999.0,  999.0,  999.0,  999.0,  999.0,  999.0,  999.0,  999.0,  999.0,  999.0,  999.0,  999.0,  999.0,  999.0,  999.0,  999.0,  999.0,  999.0,  999.0
2000/11/15 23:00,   14.7,   12.3,  999.0,    8.6,    5.2,    1.4,   -1.4,   -2.9,   -0.4,   -0.9,   -0.2,   -0.4,  999.0,  999.0,   -0.8,    0.6,  999.0,  999.0,   -0.2,    0.7,    4.2,    5.4,    5.9,    7.7,  999.0,   10.1,    9.9,  999.0,  999.0,  999.0,   11.8,  999.0,  999.0,  999.0,   15.8,   17.6,   17.4,   18.3,  999.0,  999.0,   15.0,  999.0,  999.0,  999.0,  999.0,  999.0,   15.4,  999.0,  999.0,  999.0,  999.0,  999.0,  999.0,  999.0,  999.0,  999.0,  999.0,  999.0
2000/11/15 23:10,   15.7,   12.8,    9.7,    6.4,    2.8,   -0.1,   -3.4,   -3.0,   -1.7,   -0.9,   -0.5,    0.0,    0.6,  999.0,  999.0,    2.4,  999.0,  999.0,  999.0,    4.0,    8.1,    8.1,   10.1,   11.6,   12.8,   13.0,   14.5,   13.3,  999.0,  999.0,  999.0,   16.9,  999.0,  999.0,   16.5,   17.6,   17.9,  999.0,   16.4,   16.1,  999.0,  999.0,  999.0,  999.0,  999.0,   14.3,  999.0,  999.0,  999.0,  999.0,  999.0,  999.0,  999.0,  999.0,  999.0,  999.0,  999.0,  999.0
2000/11/15 23:20,   17.4,   12.0,  999.0,    3.7,   -0.1,   -3.3,   -3.1,   -2.4,   -2.0,   -1.0,   -1.0,   -1.4,  999.0,  999.0,  999.0,   -0.3,  999.0,  999.0,    0.3,  999.0,    4.8,  999.0,  999.0,  999.0,    5.7,    7.6,    8.6,    9.6,  999.0,  999.0,  999.0,  999.0,  999.0,  999.0,  999.0,  999.0,  999.0,  999.0,   18.1,   18.1,  999.0,  999.0,  999.0,  999.0,  999.0,  999.0,  999.0,  999.0,  999.0,  999.0,  999.0,  999.0,  999.0,  999.0,  999.0,  999.0,  999.0,  999.0
2000/11/15 23:30,   12.6,    6.9,    3.4,   -0.3,   -0.0,   -3.5,   -3.0,   -2.9,   -2.6,   -0.9,   -1.1,   -1.9,    1.8,    0.4,   -1.2,  999.0,   -2.9,    2.1,   -1.8,  999.0,  999.0,  999.0,  999.0,  999.0,    5.8,    9.2,   11.8,   14.1,    8.1,  999.0,  999.0,  999.0,   20.2,   15.5,   15.0,   15.8,   17.2,  999.0,   17.5,   18.9,  999.0,  999.0,  999.0,  999.0,  999.0,  999.0,  999.0,  999.0,  999.0,  999.0,  999.0,  999.0,  999.0,  999.0,  999.0,  999.0,  999.0,  999.0
2000/11/15 23:40,   13.5,    7.8,  999.0,  999.0,   -1.2,   -2.2,   -4.0,   -2.9,   -2.8,   -0.9,   -0.9,   -0.2,    0.9,    2.8,    5.0,  999.0,  999.0,  999.0,  999.0,    3.6,  999.0,  999.0,  999.0,   10.0,  999.0,    7.8,   13.1,  999.0,  999.0,  999.0,  999.0,   16.8,  999.0,   17.6,   14.8,  999.0,  999.0,  999.0,  999.0,  999.0,  999.0,  999.0,  999.0,  999.0,  999.0,  999.0,  999.0,  999.0,  999.0,  999.0,  999.0,  999.0,  999.0,  999.0,  999.0,  999.0,  999.0,  999.0
2000/11/15 23:50,  999.0,  999.0,  999.0,   -3.2,   -3.9,   -3.0,   -2.2,   -4.0,   -5.0,    1.6,   -0.9,   -0.8,    2.3,    5.0,  999.0,  999.0,  999.0,    0.3,   -2.2,   -1.3,  999.0,  999.0,  999.0,  999.0,  999.0,  999.0,  999.0,  -13.2,  -14.1,  -14.6,  -16.4,  999.0,  -19.2,  999.0,  -21.7,  -23.1,  -24.6,  999.0,  999.0,  999.0,  999.0,  999.0,  999.0,  999.0,  999.0,  999.0,  999.0,  -22.7,  999.0,  999.0,  999.0,  999.0,  999.0,  999.0,  999.0,  999.0,  999.0,  999.0
